Time,TemperatureF,DewpointF,PressureIn,WindDirection,WindDirectionDegrees,WindSpeedMPH,WindSpeedGustMPH,Humidity,HourlyPrecipIn,Conditions,Clouds,dailyrainin,SoftwareType,DateUTC
2013-05-21 00:01:00,67.1,66.2,29.99,SW,229,0.0,0.0,97,0.00,,,0.67,Wunderground v.1.15,2013-05-21 04:01:00,
2013-05-21 00:02:00,67.1,66.2,29.99,SW,229,0.0,0.0,97,0.00,,,0.00,Wunderground v.1.15,2013-05-21 04:02:00,
2013-05-21 00:04:00,67.1,66.2,29.99,SW,229,0.0,0.0,97,0.00,,,0.00,Wunderground v.1.15,2013-05-21 04:04:00,
2013-05-21 00:07:00,67.2,66.6,29.99,SW,232,0.0,0.0,98,0.00,,,0.00,Wunderground v.1.15,2013-05-21 04:07:00,
2013-05-21 00:08:00,67.3,66.7,29.99,SW,232,0.0,0.0,98,0.00,,,0.00,Wunderground v.1.15,2013-05-21 04:08:00,
2013-05-21 00:09:00,67.3,66.7,29.99,SW,233,0.0,0.0,98,0.00,,,0.00,Wunderground v.1.15,2013-05-21 04:09:00,
2013-05-21 00:10:00,67.3,66.7,29.99,SW,233,0.0,0.0,98,0.00,,,0.00,Wunderground v.1.15,2013-05-21 04:10:00,
2013-05-21 00:13:00,67.4,66.8,29.99,SW,233,0.0,0.0,98,0.00,,,0.00,Wunderground v.1.15,2013-05-21 04:13:00,
2013-05-21 00:17:00,67.3,66.7,29.99,SW,233,0.0,0.0,98,0.00,,,0.00,Wunderground v.1.15,2013-05-21 04:17:00,
2013-05-21 00:18:00,67.3,66.7,29.99,SW,233,0.0,0.0,98,0.00,,,0.00,Wunderground v.1.15,2013-05-21 04:18:00,
2013-05-21 00:19:00,67.4,66.8,29.99,SW,233,0.0,0.0,98,0.00,,,0.00,Wunderground v.1.15,2013-05-21 04:19:00,
2013-05-21 00:21:00,67.4,66.8,29.99,SW,233,0.0,0.0,98,0.00,,,0.00,Wunderground v.1.15,2013-05-21 04:21:00,
2013-05-21 00:24:00,67.4,66.8,29.99,SW,232,0.0,0.0,98,0.00,,,0.00,Wunderground v.1.15,2013-05-21 04:24:00,
2013-05-21 00:25:00,67.4,66.8,29.99,WNW,284,0.0,0.0,98,0.00,,,0.00,Wunderground v.1.15,2013-05-21 04:25:00,
2013-05-21 00:27:00,67.4,66.8,29.99,WNW,284,0.0,0.0,98,0.00,,,0.00,Wunderground v.1.15,2013-05-21 04:27:00,
2013-05-21 00:29:00,67.4,66.8,29.99,WNW,284,0.0,0.0,98,0.00,,,0.00,Wunderground v.1.15,2013-05-21 04:29:00,
2013-05-21 00:31:00,67.4,66.8,29.99,WNW,284,0.0,0.0,98,0.00,,,0.00,Wunderground v.1.15,2013-05-21 04:31:00,
2013-05-21 00:33:00,67.5,66.9,29.99,WNW,284,0.0,0.0,98,0.00,,,0.00,Wunderground v.1.15,2013-05-21 04:33:00,
2013-05-21 00:37:00,67.5,66.9,29.99,WNW,284,0.0,0.0,98,0.00,,,0.00,Wunderground v.1.15,2013-05-21 04:37:00,
2013-05-21 00:38:00,67.5,66.9,29.99,WNW,284,0.0,0.0,98,0.00,,,0.00,Wunderground v.1.15,2013-05-21 04:38:00,
2013-05-21 00:39:00,67.5,66.9,29.99,WNW,284,0.0,0.0,98,0.00,,,0.00,Wunderground v.1.15,2013-05-21 04:39:00,
2013-05-21 00:41:00,67.5,66.9,29.99,WNW,284,0.0,0.0,98,0.00,,,0.00,Wunderground v.1.15,2013-05-21 04:41:00,
2013-05-21 00:42:00,67.5,66.9,29.99,WNW,284,0.0,0.0,98,0.00,,,0.00,Wunderground v.1.15,2013-05-21 04:42:00,
2013-05-21 00:43:00,67.5,66.9,29.99,WNW,284,0.0,0.0,98,0.00,,,0.00,Wunderground v.1.15,2013-05-21 04:43:00,
2013-05-21 00:45:00,67.5,66.9,29.99,WNW,284,0.0,0.0,98,0.00,,,0.00,Wunderground v.1.15,2013-05-21 04:45:00,
2013-05-21 00:47:00,67.4,66.8,29.99,WNW,284,0.0,0.0,98,0.00,,,0.00,Wunderground v.1.15,2013-05-21 04:47:00,
2013-05-21 00:48:00,67.4,66.8,29.99,WNW,284,0.0,0.0,98,0.00,,,0.00,Wunderground v.1.15,2013-05-21 04:48:00,
2013-05-21 00:49:00,67.4,66.8,29.99,WNW,284,0.0,0.0,98,0.00,,,0.00,Wunderground v.1.15,2013-05-21 04:49:00,
2013-05-21 00:54:00,67.3,66.7,29.99,WNW,284,0.0,0.0,98,0.00,,,0.00,Wunderground v.1.15,2013-05-21 04:54:00,
2013-05-21 00:59:00,67.2,66.6,29.98,WNW,284,0.0,0.0,98,0.00,,,0.00,Wunderground v.1.15,2013-05-21 04:59:00,
2013-05-21 01:00:00,67.2,66.6,29.98,WNW,284,0.0,0.0,98,0.00,,,0.00,Wunderground v.1.15,2013-05-21 05:00:00,
2013-05-21 01:01:00,67.2,66.6,29.98,WNW,284,0.0,0.0,98,0.00,,,0.00,Wunderground v.1.15,2013-05-21 05:01:00,
2013-05-21 01:04:00,67.2,66.6,29.98,WNW,284,0.0,0.0,98,0.00,,,0.00,Wunderground v.1.15,2013-05-21 05:04:00,
2013-05-21 01:05:00,67.2,66.6,29.98,WNW,284,0.0,0.0,98,0.00,,,0.00,Wunderground v.1.15,2013-05-21 05:05:00,
2013-05-21 01:06:00,67.2,66.6,29.98,WNW,284,0.0,0.0,98,0.00,,,0.00,Wunderground v.1.15,2013-05-21 05:06:00,
2013-05-21 01:07:00,67.2,66.6,29.98,WNW,284,0.0,0.0,98,0.00,,,0.00,Wunderground v.1.15,2013-05-21 05:07:00,
2013-05-21 01:08:00,67.2,66.6,29.98,WNW,284,0.0,0.0,98,0.00,,,0.00,Wunderground v.1.15,2013-05-21 05:08:00,
2013-05-21 01:10:00,67.2,66.6,29.98,WNW,284,0.0,0.0,98,0.00,,,0.00,Wunderground v.1.15,2013-05-21 05:10:00,
2013-05-21 01:13:00,67.2,66.6,29.98,WNW,284,0.0,0.0,98,0.00,,,0.00,Wunderground v.1.15,2013-05-21 05:13:00,
2013-05-21 01:14:00,67.2,66.6,29.98,WNW,284,0.0,0.0,98,0.00,,,0.00,Wunderground v.1.15,2013-05-21 05:14:00,
2013-05-21 01:15:00,67.2,66.6,29.98,WNW,284,0.0,0.0,98,0.00,,,0.00,Wunderground v.1.15,2013-05-21 05:15:00,
2013-05-21 01:18:00,67.3,66.7,29.98,WNW,284,0.0,0.0,98,0.00,,,0.00,Wunderground v.1.15,2013-05-21 05:18:00,
2013-05-21 01:19:00,67.3,66.7,29.98,WNW,284,0.0,0.0,98,0.00,,,0.00,Wunderground v.1.15,2013-05-21 05:19:00,
2013-05-21 01:21:00,67.3,66.7,29.98,WNW,284,0.0,0.0,98,0.00,,,0.00,Wunderground v.1.15,2013-05-21 05:21:00,
2013-05-21 01:22:00,67.3,66.7,29.98,WNW,284,0.0,0.0,98,0.00,,,0.00,Wunderground v.1.15,2013-05-21 05:22:00,
2013-05-21 01:25:00,67.3,66.7,29.98,WNW,284,0.0,0.0,98,0.00,,,0.00,Wunderground v.1.15,2013-05-21 05:25:00,
2013-05-21 01:26:00,67.3,66.7,29.98,WNW,284,0.0,0.0,98,0.00,,,0.00,Wunderground v.1.15,2013-05-21 05:26:00,
2013-05-21 01:28:00,67.3,66.7,29.98,WNW,284,0.0,0.0,98,0.00,,,0.00,Wunderground v.1.15,2013-05-21 05:28:00,
2013-05-21 01:29:00,67.3,66.7,29.98,WNW,284,0.0,0.0,98,0.00,,,0.00,Wunderground v.1.15,2013-05-21 05:29:00,
2013-05-21 01:32:00,67.4,66.8,29.98,WNW,284,0.0,0.0,98,0.00,,,0.00,Wunderground v.1.15,2013-05-21 05:32:00,
2013-05-21 01:33:00,67.4,66.8,29.98,WNW,284,0.0,0.0,98,0.00,,,0.00,Wunderground v.1.15,2013-05-21 05:33:00,
2013-05-21 01:35:00,67.4,66.8,29.98,WNW,284,0.0,0.0,98,0.00,,,0.00,Wunderground v.1.15,2013-05-21 05:35:00,
2013-05-21 01:37:00,67.4,66.8,29.98,WNW,284,0.0,0.0,98,0.00,,,0.00,Wunderground v.1.15,2013-05-21 05:37:00,
2013-05-21 01:42:00,67.4,66.8,29.98,WSW,238,0.0,0.0,98,0.00,,,0.00,Wunderground v.1.15,2013-05-21 05:42:00,
2013-05-21 01:43:00,67.4,66.8,29.98,WSW,238,0.0,0.0,98,0.00,,,0.00,Wunderground v.1.15,2013-05-21 05:43:00,
2013-05-21 01:44:00,67.4,66.8,29.98,WSW,238,0.0,0.0,98,0.00,,,0.00,Wunderground v.1.15,2013-05-21 05:44:00,
2013-05-21 01:48:00,67.5,66.9,29.98,SW,232,0.0,0.0,98,0.00,,,0.00,Wunderground v.1.15,2013-05-21 05:48:00,
2013-05-21 01:49:00,67.5,66.9,29.98,SW,233,0.0,0.0,98,0.00,,,0.00,Wunderground v.1.15,2013-05-21 05:49:00,
2013-05-21 01:53:00,67.5,66.9,29.98,WSW,256,0.0,0.0,98,0.00,,,0.00,Wunderground v.1.15,2013-05-21 05:53:00,
2013-05-21 01:54:00,67.5,66.9,29.98,WSW,256,0.0,0.0,98,0.00,,,0.00,Wunderground v.1.15,2013-05-21 05:54:00,
2013-05-21 01:55:00,67.5,66.9,29.98,WSW,256,0.0,0.0,98,0.00,,,0.00,Wunderground v.1.15,2013-05-21 05:55:00,
2013-05-21 01:56:00,67.5,66.9,29.98,WSW,256,0.0,0.0,98,0.00,,,0.00,Wunderground v.1.15,2013-05-21 05:56:00,
2013-05-21 01:57:00,67.4,66.8,29.98,WSW,256,0.0,0.0,98,0.00,,,0.00,Wunderground v.1.15,2013-05-21 05:57:00,
2013-05-21 02:00:00,67.3,66.7,29.98,WSW,256,0.0,0.0,98,0.00,,,0.00,Wunderground v.1.15,2013-05-21 06:00:00,
2013-05-21 02:01:00,67.2,66.6,29.98,WSW,256,0.0,0.0,98,0.00,,,0.00,Wunderground v.1.15,2013-05-21 06:01:00,
2013-05-21 02:02:00,67.1,66.5,29.97,WSW,256,0.0,0.0,98,0.00,,,0.00,Wunderground v.1.15,2013-05-21 06:02:00,
2013-05-21 02:05:00,67.0,66.4,29.98,WSW,256,0.0,0.0,98,0.00,,,0.00,Wunderground v.1.15,2013-05-21 06:05:00,
2013-05-21 02:06:00,67.0,66.4,29.98,WSW,256,0.0,0.0,98,0.00,,,0.00,Wunderground v.1.15,2013-05-21 06:06:00,
2013-05-21 02:07:00,66.9,66.3,29.98,WSW,256,0.0,0.0,98,0.00,,,0.00,Wunderground v.1.15,2013-05-21 06:07:00,
2013-05-21 02:10:00,66.8,66.2,29.98,WSW,255,0.0,0.0,98,0.00,,,0.00,Wunderground v.1.15,2013-05-21 06:10:00,
2013-05-21 02:11:00,66.7,66.1,29.98,WSW,256,0.0,0.0,98,0.00,,,0.00,Wunderground v.1.15,2013-05-21 06:11:00,
2013-05-21 02:12:00,66.7,66.1,29.98,WSW,256,0.0,0.0,98,0.00,,,0.00,Wunderground v.1.15,2013-05-21 06:12:00,
2013-05-21 02:16:00,66.6,66.0,29.98,WSW,256,0.0,0.0,98,0.00,,,0.00,Wunderground v.1.15,2013-05-21 06:16:00,
2013-05-21 02:17:00,66.6,66.0,29.98,WSW,256,0.0,0.0,98,0.00,,,0.00,Wunderground v.1.15,2013-05-21 06:17:00,
2013-05-21 02:21:00,66.4,65.8,29.98,WSW,256,0.0,0.0,98,0.00,,,0.00,Wunderground v.1.15,2013-05-21 06:21:00,
2013-05-21 02:22:00,66.4,65.8,29.98,WSW,256,0.0,0.0,98,0.00,,,0.00,Wunderground v.1.15,2013-05-21 06:22:00,
2013-05-21 02:26:00,66.2,65.6,29.98,WSW,256,0.0,0.0,98,0.00,,,0.00,Wunderground v.1.15,2013-05-21 06:26:00,
2013-05-21 02:27:00,66.2,65.6,29.98,WSW,256,0.0,0.0,98,0.00,,,0.00,Wunderground v.1.15,2013-05-21 06:27:00,
2013-05-21 02:31:00,66.1,65.5,29.98,WSW,256,0.0,0.0,98,0.00,,,0.00,Wunderground v.1.15,2013-05-21 06:31:00,
2013-05-21 02:32:00,66.1,65.5,29.98,WSW,256,0.0,0.0,98,0.00,,,0.00,Wunderground v.1.15,2013-05-21 06:32:00,
2013-05-21 02:36:00,66.0,65.4,29.97,WSW,256,0.0,0.0,98,0.00,,,0.00,Wunderground v.1.15,2013-05-21 06:36:00,
2013-05-21 02:37:00,65.9,65.3,29.98,WSW,256,0.0,0.0,98,0.00,,,0.00,Wunderground v.1.15,2013-05-21 06:37:00,
2013-05-21 02:38:00,65.9,65.3,29.98,WSW,256,0.0,0.0,98,0.00,,,0.00,Wunderground v.1.15,2013-05-21 06:38:00,
2013-05-21 02:41:00,65.8,65.2,29.98,WSW,256,0.0,0.0,98,0.00,,,0.00,Wunderground v.1.15,2013-05-21 06:41:00,
2013-05-21 02:42:00,65.8,65.2,29.97,WSW,256,0.0,0.0,98,0.00,,,0.00,Wunderground v.1.15,2013-05-21 06:42:00,
2013-05-21 02:43:00,65.8,65.2,29.97,WSW,256,0.0,0.0,98,0.00,,,0.00,Wunderground v.1.15,2013-05-21 06:43:00,
2013-05-21 02:46:00,65.7,65.1,29.97,WSW,254,0.0,0.0,98,0.00,,,0.00,Wunderground v.1.15,2013-05-21 06:46:00,
2013-05-21 02:47:00,65.7,65.1,29.97,WSW,256,0.0,0.0,98,0.00,,,0.00,Wunderground v.1.15,2013-05-21 06:47:00,
2013-05-21 02:48:00,65.7,65.1,29.97,WSW,256,0.0,0.0,98,0.00,,,0.00,Wunderground v.1.15,2013-05-21 06:48:00,
2013-05-21 02:51:00,65.5,64.9,29.97,WSW,256,0.0,0.0,98,0.00,,,0.00,Wunderground v.1.15,2013-05-21 06:51:00,
2013-05-21 02:53:00,65.5,64.9,29.97,WSW,256,0.0,0.0,98,0.00,,,0.00,Wunderground v.1.15,2013-05-21 06:53:00,
2013-05-21 02:56:00,65.4,64.8,29.97,WSW,256,0.0,0.0,98,0.00,,,0.00,Wunderground v.1.15,2013-05-21 06:56:00,
2013-05-21 02:58:00,65.4,64.8,29.97,WSW,256,0.0,0.0,98,0.00,,,0.00,Wunderground v.1.15,2013-05-21 06:58:00,
2013-05-21 02:59:00,65.4,64.8,29.97,WSW,256,0.0,0.0,98,0.00,,,0.00,Wunderground v.1.15,2013-05-21 06:59:00,
2013-05-21 03:01:00,65.3,64.7,29.97,WSW,255,0.0,0.0,98,0.00,,,0.00,Wunderground v.1.15,2013-05-21 07:01:00,
2013-05-21 03:03:00,65.2,64.6,29.97,WSW,256,0.0,0.0,98,0.00,,,0.00,Wunderground v.1.15,2013-05-21 07:03:00,
2013-05-21 03:04:00,65.2,64.6,29.97,WSW,256,0.0,0.0,98,0.00,,,0.00,Wunderground v.1.15,2013-05-21 07:04:00,
2013-05-21 03:06:00,65.3,64.7,29.97,WSW,256,0.0,0.0,98,0.00,,,0.00,Wunderground v.1.15,2013-05-21 07:06:00,
2013-05-21 03:09:00,65.3,65.0,29.97,WSW,257,0.0,0.0,99,0.00,,,0.00,Wunderground v.1.15,2013-05-21 07:09:00,
2013-05-21 03:11:00,65.3,65.0,29.97,WSW,256,0.0,0.0,99,0.00,,,0.00,Wunderground v.1.15,2013-05-21 07:11:00,
2013-05-21 03:14:00,65.3,65.0,29.97,WSW,256,0.0,0.0,99,0.00,,,0.00,Wunderground v.1.15,2013-05-21 07:14:00,
2013-05-21 03:15:00,65.3,65.0,29.97,WSW,256,0.0,0.0,99,0.00,,,0.00,Wunderground v.1.15,2013-05-21 07:15:00,
2013-05-21 03:17:00,65.2,64.9,29.97,WSW,256,0.0,0.0,99,0.00,,,0.00,Wunderground v.1.15,2013-05-21 07:17:00,
2013-05-21 03:19:00,65.2,64.9,29.97,WSW,256,0.0,0.0,99,0.00,,,0.00,Wunderground v.1.15,2013-05-21 07:19:00,
2013-05-21 03:20:00,65.2,64.9,29.97,WSW,256,0.0,0.0,99,0.00,,,0.00,Wunderground v.1.15,2013-05-21 07:20:00,
2013-05-21 03:22:00,65.2,64.9,29.97,WSW,256,0.0,0.0,99,0.00,,,0.00,Wunderground v.1.15,2013-05-21 07:22:00,
2013-05-21 03:24:00,65.2,64.9,29.97,WSW,256,0.0,0.0,99,0.00,,,0.00,Wunderground v.1.15,2013-05-21 07:24:00,
2013-05-21 03:25:00,65.2,64.9,29.97,WSW,256,0.0,0.0,99,0.00,,,0.00,Wunderground v.1.15,2013-05-21 07:25:00,
2013-05-21 03:27:00,65.2,64.9,29.97,WSW,256,0.0,0.0,99,0.00,,,0.00,Wunderground v.1.15,2013-05-21 07:27:00,
2013-05-21 03:29:00,65.3,65.0,29.98,WSW,256,0.0,0.0,99,0.00,,,0.00,Wunderground v.1.15,2013-05-21 07:29:00,
2013-05-21 03:30:00,65.3,65.0,29.98,WSW,256,0.0,0.0,99,0.00,,,0.00,Wunderground v.1.15,2013-05-21 07:30:00,
2013-05-21 03:32:00,65.4,65.1,29.98,WSW,256,0.0,0.0,99,0.00,,,0.00,Wunderground v.1.15,2013-05-21 07:32:00,
2013-05-21 03:35:00,65.6,65.3,29.98,WSW,256,0.0,0.0,99,0.00,,,0.00,Wunderground v.1.15,2013-05-21 07:35:00,
2013-05-21 03:37:00,65.6,65.3,29.98,WSW,256,0.0,0.0,99,0.00,,,0.00,Wunderground v.1.15,2013-05-21 07:37:00,
2013-05-21 03:40:00,65.6,65.3,29.97,WSW,256,0.0,0.0,99,0.00,,,0.00,Wunderground v.1.15,2013-05-21 07:40:00,
2013-05-21 03:42:00,65.7,65.4,29.98,WSW,256,0.0,0.0,99,0.00,,,0.00,Wunderground v.1.15,2013-05-21 07:42:00,
2013-05-21 03:45:00,65.7,65.4,29.98,WSW,256,0.0,0.0,99,0.00,,,0.00,Wunderground v.1.15,2013-05-21 07:45:00,
2013-05-21 03:48:00,65.7,65.4,29.98,WSW,255,0.0,0.0,99,0.00,,,0.00,Wunderground v.1.15,2013-05-21 07:48:00,
2013-05-21 03:50:00,65.8,65.5,29.97,WSW,256,0.0,0.0,99,0.00,,,0.00,Wunderground v.1.15,2013-05-21 07:50:00,
2013-05-21 03:51:00,65.8,65.5,29.97,WSW,255,0.0,0.0,99,0.00,,,0.00,Wunderground v.1.15,2013-05-21 07:51:00,
2013-05-21 03:53:00,65.8,65.5,29.97,WSW,257,0.0,0.0,99,0.00,,,0.00,Wunderground v.1.15,2013-05-21 07:53:00,
2013-05-21 03:55:00,65.8,65.5,29.97,WSW,256,0.0,0.0,99,0.00,,,0.00,Wunderground v.1.15,2013-05-21 07:55:00,
2013-05-21 03:56:00,65.8,65.5,29.97,WSW,255,0.0,0.0,99,0.00,,,0.00,Wunderground v.1.15,2013-05-21 07:56:00,
2013-05-21 03:58:00,65.8,65.5,29.97,WSW,256,0.0,0.0,99,0.00,,,0.00,Wunderground v.1.15,2013-05-21 07:58:00,
2013-05-21 04:01:00,65.8,65.5,29.97,WSW,256,0.0,0.0,99,0.00,,,0.00,Wunderground v.1.15,2013-05-21 08:01:00,
2013-05-21 04:03:00,65.8,65.5,29.98,WSW,256,0.0,0.0,99,0.00,,,0.00,Wunderground v.1.15,2013-05-21 08:03:00,
2013-05-21 04:06:00,65.8,65.5,29.98,WSW,256,0.0,0.0,99,0.00,,,0.00,Wunderground v.1.15,2013-05-21 08:06:00,
2013-05-21 04:09:00,65.8,65.5,29.98,WSW,256,0.0,0.0,99,0.00,,,0.00,Wunderground v.1.15,2013-05-21 08:09:00,
2013-05-21 04:11:00,65.8,65.5,29.98,WSW,256,0.0,0.0,99,0.00,,,0.00,Wunderground v.1.15,2013-05-21 08:11:00,
2013-05-21 04:12:00,65.8,65.5,29.98,WSW,256,0.0,0.0,99,0.00,,,0.00,Wunderground v.1.15,2013-05-21 08:12:00,
2013-05-21 04:14:00,65.9,65.6,29.98,WSW,256,0.0,0.0,99,0.00,,,0.00,Wunderground v.1.15,2013-05-21 08:14:00,
2013-05-21 04:16:00,65.9,65.6,29.98,WSW,256,0.0,0.0,99,0.00,,,0.00,Wunderground v.1.15,2013-05-21 08:16:00,
2013-05-21 04:17:00,65.9,65.6,29.98,WSW,256,0.0,0.0,99,0.00,,,0.00,Wunderground v.1.15,2013-05-21 08:17:00,
2013-05-21 04:19:00,65.9,65.6,29.98,WSW,256,0.0,0.0,99,0.00,,,0.00,Wunderground v.1.15,2013-05-21 08:19:00,
2013-05-21 04:21:00,65.9,65.6,29.98,WSW,256,0.0,0.0,99,0.00,,,0.00,Wunderground v.1.15,2013-05-21 08:21:00,
2013-05-21 04:22:00,65.9,65.6,29.98,WSW,256,0.0,0.0,99,0.00,,,0.00,Wunderground v.1.15,2013-05-21 08:22:00,
2013-05-21 04:23:00,65.9,65.6,29.98,WSW,256,0.0,0.0,99,0.00,,,0.00,Wunderground v.1.15,2013-05-21 08:23:00,
2013-05-21 04:24:00,65.9,65.6,29.98,WSW,256,0.0,0.0,99,0.00,,,0.00,Wunderground v.1.15,2013-05-21 08:24:00,
2013-05-21 04:26:00,66.0,65.7,29.98,WSW,254,0.0,0.0,99,0.00,,,0.00,Wunderground v.1.15,2013-05-21 08:26:00,
2013-05-21 04:28:00,66.0,65.7,29.98,WSW,256,0.0,0.0,99,0.00,,,0.00,Wunderground v.1.15,2013-05-21 08:28:00,
2013-05-21 04:29:00,66.0,65.7,29.98,WSW,256,0.0,0.0,99,0.00,,,0.00,Wunderground v.1.15,2013-05-21 08:29:00,
2013-05-21 04:32:00,66.1,65.8,29.98,WSW,255,0.0,0.0,99,0.00,,,0.00,Wunderground v.1.15,2013-05-21 08:32:00,
2013-05-21 04:33:00,66.1,65.8,29.98,WSW,256,0.0,0.0,99,0.00,,,0.00,Wunderground v.1.15,2013-05-21 08:33:00,
2013-05-21 04:34:00,66.1,65.8,29.98,WSW,256,0.0,0.0,99,0.00,,,0.00,Wunderground v.1.15,2013-05-21 08:34:00,
2013-05-21 04:37:00,66.1,65.8,29.98,WSW,255,0.0,0.0,99,0.00,,,0.00,Wunderground v.1.15,2013-05-21 08:37:00,
2013-05-21 04:38:00,66.1,65.8,29.98,WSW,256,0.0,0.0,99,0.00,,,0.00,Wunderground v.1.15,2013-05-21 08:38:00,
2013-05-21 04:39:00,66.1,65.8,29.98,WSW,256,0.0,0.0,99,0.00,,,0.00,Wunderground v.1.15,2013-05-21 08:39:00,
2013-05-21 04:42:00,66.2,65.9,29.98,WSW,256,0.0,0.0,99,0.00,,,0.00,Wunderground v.1.15,2013-05-21 08:42:00,
2013-05-21 04:43:00,66.1,65.8,29.97,WSW,256,0.0,0.0,99,0.00,,,0.00,Wunderground v.1.15,2013-05-21 08:43:00,
2013-05-21 04:44:00,66.2,65.9,29.98,WSW,255,0.0,0.0,99,0.00,,,0.00,Wunderground v.1.15,2013-05-21 08:44:00,
2013-05-21 04:45:00,66.1,65.8,29.98,WSW,256,0.0,0.0,99,0.00,,,0.00,Wunderground v.1.15,2013-05-21 08:45:00,
2013-05-21 04:47:00,66.2,65.9,29.97,WSW,256,0.0,0.0,99,0.00,,,0.00,Wunderground v.1.15,2013-05-21 08:47:00,
2013-05-21 04:48:00,66.2,65.9,29.97,WSW,256,0.0,0.0,99,0.00,,,0.00,Wunderground v.1.15,2013-05-21 08:48:00,
2013-05-21 04:50:00,66.2,65.9,29.97,WSW,256,0.0,0.0,99,0.00,,,0.00,Wunderground v.1.15,2013-05-21 08:50:00,
2013-05-21 04:52:00,66.1,65.8,29.98,WSW,256,0.0,0.0,99,0.00,,,0.00,Wunderground v.1.15,2013-05-21 08:52:00,
2013-05-21 04:54:00,66.1,65.8,29.97,WSW,256,0.0,0.0,99,0.00,,,0.00,Wunderground v.1.15,2013-05-21 08:54:00,
2013-05-21 04:55:00,66.1,65.8,29.97,WSW,256,0.0,0.0,99,0.00,,,0.00,Wunderground v.1.15,2013-05-21 08:55:00,
2013-05-21 04:57:00,66.1,65.8,29.97,WSW,254,0.0,0.0,99,0.00,,,0.00,Wunderground v.1.15,2013-05-21 08:57:00,
2013-05-21 04:58:00,66.1,65.8,29.97,WSW,255,0.0,0.0,99,0.00,,,0.00,Wunderground v.1.15,2013-05-21 08:58:00,
2013-05-21 05:00:00,66.0,65.7,29.97,WSW,256,0.0,0.0,99,0.00,,,0.00,Wunderground v.1.15,2013-05-21 09:00:00,
2013-05-21 05:03:00,66.0,65.7,29.97,WSW,255,0.0,0.0,99,0.00,,,0.00,Wunderground v.1.15,2013-05-21 09:03:00,
2013-05-21 05:04:00,66.0,65.7,29.97,WSW,257,0.0,0.0,99,0.00,,,0.00,Wunderground v.1.15,2013-05-21 09:04:00,
2013-05-21 05:05:00,65.9,65.6,29.98,WSW,256,0.0,0.0,99,0.00,,,0.00,Wunderground v.1.15,2013-05-21 09:05:00,
2013-05-21 05:08:00,65.9,65.6,29.98,WSW,256,0.0,0.0,99,0.00,,,0.00,Wunderground v.1.15,2013-05-21 09:08:00,
2013-05-21 05:09:00,65.9,65.6,29.98,WSW,256,0.0,0.0,99,0.00,,,0.00,Wunderground v.1.15,2013-05-21 09:09:00,
2013-05-21 05:11:00,65.8,65.5,29.97,WSW,255,0.0,0.0,99,0.00,,,0.00,Wunderground v.1.15,2013-05-21 09:11:00,
2013-05-21 05:13:00,65.8,65.5,29.97,WSW,255,0.0,0.0,99,0.00,,,0.00,Wunderground v.1.15,2013-05-21 09:13:00,
2013-05-21 05:14:00,65.8,65.5,29.97,WSW,256,0.0,0.0,99,0.00,,,0.00,Wunderground v.1.15,2013-05-21 09:14:00,
2013-05-21 05:16:00,65.7,65.4,29.97,WSW,256,0.0,0.0,99,0.00,,,0.00,Wunderground v.1.15,2013-05-21 09:16:00,
2013-05-21 05:18:00,65.6,65.3,29.97,WSW,256,0.0,0.0,99,0.00,,,0.00,Wunderground v.1.15,2013-05-21 09:18:00,
2013-05-21 05:19:00,65.6,65.3,29.97,WSW,255,0.0,0.0,99,0.00,,,0.00,Wunderground v.1.15,2013-05-21 09:19:00,
2013-05-21 05:21:00,65.5,65.2,29.97,WSW,256,0.0,0.0,99,0.00,,,0.00,Wunderground v.1.15,2013-05-21 09:21:00,
2013-05-21 05:23:00,65.5,65.2,29.97,WSW,256,0.0,0.0,99,0.00,,,0.00,Wunderground v.1.15,2013-05-21 09:23:00,
2013-05-21 05:24:00,65.5,65.2,29.97,WSW,256,0.0,0.0,99,0.00,,,0.00,Wunderground v.1.15,2013-05-21 09:24:00,
2013-05-21 05:26:00,65.4,65.1,29.97,WSW,256,0.0,0.0,99,0.00,,,0.00,Wunderground v.1.15,2013-05-21 09:26:00,
2013-05-21 05:29:00,65.2,64.9,29.97,WSW,256,0.0,0.0,99,0.00,,,0.00,Wunderground v.1.15,2013-05-21 09:29:00,
2013-05-21 05:30:00,65.2,64.9,29.97,WSW,256,0.0,0.0,99,0.00,,,0.00,Wunderground v.1.15,2013-05-21 09:30:00,
2013-05-21 05:31:00,65.1,64.8,29.98,WSW,256,0.0,0.0,99,0.00,,,0.00,Wunderground v.1.15,2013-05-21 09:31:00,
2013-05-21 05:32:00,65.1,64.8,29.98,WSW,256,0.0,0.0,99,0.00,,,0.00,Wunderground v.1.15,2013-05-21 09:32:00,
2013-05-21 05:34:00,65.0,64.7,29.98,WSW,256,0.0,0.0,99,0.00,,,0.00,Wunderground v.1.15,2013-05-21 09:34:00,
2013-05-21 05:35:00,65.0,64.7,29.98,WSW,256,0.0,0.0,99,0.00,,,0.00,Wunderground v.1.15,2013-05-21 09:35:00,
2013-05-21 05:36:00,65.0,64.7,29.98,WSW,255,0.0,0.0,99,0.00,,,0.00,Wunderground v.1.15,2013-05-21 09:36:00,
2013-05-21 05:37:00,64.9,64.6,29.98,WSW,256,0.0,0.0,99,0.00,,,0.00,Wunderground v.1.15,2013-05-21 09:37:00,
2013-05-21 05:39:00,64.9,64.6,29.98,WSW,255,0.0,0.0,99,0.00,,,0.00,Wunderground v.1.15,2013-05-21 09:39:00,
2013-05-21 05:40:00,64.9,64.6,29.98,WSW,256,0.0,0.0,99,0.00,,,0.00,Wunderground v.1.15,2013-05-21 09:40:00,
2013-05-21 05:41:00,64.8,64.5,29.98,WSW,254,0.0,0.0,99,0.00,,,0.00,Wunderground v.1.15,2013-05-21 09:41:00,
2013-05-21 05:42:00,64.8,64.5,29.98,WSW,256,0.0,0.0,99,0.00,,,0.00,Wunderground v.1.15,2013-05-21 09:42:00,
2013-05-21 05:44:00,64.7,64.4,29.98,WSW,256,0.0,0.0,99,0.00,,,0.00,Wunderground v.1.15,2013-05-21 09:44:00,
2013-05-21 05:45:00,64.6,64.3,29.98,WSW,256,0.0,0.0,99,0.00,,,0.00,Wunderground v.1.15,2013-05-21 09:45:00,
2013-05-21 05:46:00,64.6,64.3,29.98,WSW,256,0.0,0.0,99,0.00,,,0.00,Wunderground v.1.15,2013-05-21 09:46:00,
2013-05-21 05:47:00,64.6,64.3,29.98,WSW,255,0.0,0.0,99,0.00,,,0.00,Wunderground v.1.15,2013-05-21 09:47:00,
2013-05-21 05:50:00,64.5,64.2,29.98,WSW,254,0.0,0.0,99,0.00,,,0.00,Wunderground v.1.15,2013-05-21 09:50:00,
2013-05-21 05:51:00,64.5,64.2,29.98,WSW,255,0.0,0.0,99,0.00,,,0.00,Wunderground v.1.15,2013-05-21 09:51:00,
2013-05-21 05:52:00,64.5,64.2,29.98,WSW,256,0.0,0.0,99,0.00,,,0.00,Wunderground v.1.15,2013-05-21 09:52:00,
2013-05-21 05:55:00,64.4,64.1,29.98,WSW,256,0.0,0.0,99,0.00,,,0.00,Wunderground v.1.15,2013-05-21 09:55:00,
2013-05-21 05:56:00,64.4,64.1,29.98,WSW,256,0.0,0.0,99,0.00,,,0.00,Wunderground v.1.15,2013-05-21 09:56:00,
2013-05-21 05:57:00,64.4,64.1,29.98,WSW,256,0.0,0.0,99,0.00,,,0.00,Wunderground v.1.15,2013-05-21 09:57:00,
2013-05-21 06:00:00,64.3,64.0,29.98,WSW,256,0.0,0.0,99,0.00,,,0.00,Wunderground v.1.15,2013-05-21 10:00:00,
2013-05-21 06:01:00,64.3,64.0,29.98,WSW,256,0.0,0.0,99,0.00,,,0.00,Wunderground v.1.15,2013-05-21 10:01:00,
2013-05-21 06:02:00,64.3,64.0,29.98,WSW,254,0.0,0.0,99,0.00,,,0.00,Wunderground v.1.15,2013-05-21 10:02:00,
2013-05-21 06:05:00,64.1,63.8,29.98,WSW,255,0.0,0.0,99,0.00,,,0.00,Wunderground v.1.15,2013-05-21 10:05:00,
2013-05-21 06:06:00,64.1,63.8,29.98,WSW,256,0.0,0.0,99,0.00,,,0.00,Wunderground v.1.15,2013-05-21 10:06:00,
2013-05-21 06:07:00,64.1,63.8,29.98,WSW,256,0.0,0.0,99,0.00,,,0.00,Wunderground v.1.15,2013-05-21 10:07:00,
2013-05-21 06:11:00,64.0,63.7,29.98,WSW,256,0.0,0.0,99,0.00,,,0.00,Wunderground v.1.15,2013-05-21 10:11:00,
2013-05-21 06:12:00,64.0,63.7,29.98,WSW,256,0.0,0.0,99,0.00,,,0.00,Wunderground v.1.15,2013-05-21 10:12:00,
2013-05-21 06:16:00,64.0,63.7,29.98,WSW,256,0.0,0.0,99,0.00,,,0.00,Wunderground v.1.15,2013-05-21 10:16:00,
2013-05-21 06:17:00,64.0,63.7,29.98,WSW,256,0.0,0.0,99,0.00,,,0.00,Wunderground v.1.15,2013-05-21 10:17:00,
2013-05-21 06:18:00,64.0,63.7,29.98,WSW,255,0.0,0.0,99,0.00,,,0.00,Wunderground v.1.15,2013-05-21 10:18:00,
2013-05-21 06:21:00,64.0,63.7,29.98,WSW,256,0.0,0.0,99,0.00,,,0.00,Wunderground v.1.15,2013-05-21 10:21:00,
2013-05-21 06:22:00,64.0,63.7,29.98,WSW,256,0.0,0.0,99,0.00,,,0.00,Wunderground v.1.15,2013-05-21 10:22:00,
2013-05-21 06:24:00,64.0,63.7,29.98,WSW,256,0.0,0.0,99,0.00,,,0.00,Wunderground v.1.15,2013-05-21 10:24:00,
2013-05-21 06:26:00,64.0,63.7,29.98,WSW,255,0.0,0.0,99,0.00,,,0.00,Wunderground v.1.15,2013-05-21 10:26:00,
2013-05-21 06:27:00,64.0,63.7,29.98,WSW,256,0.0,0.0,99,0.00,,,0.00,Wunderground v.1.15,2013-05-21 10:27:00,
2013-05-21 06:29:00,64.0,63.7,29.98,WSW,256,0.0,0.0,99,0.00,,,0.00,Wunderground v.1.15,2013-05-21 10:29:00,
2013-05-21 06:31:00,64.1,63.8,29.98,WSW,256,0.0,0.0,99,0.00,,,0.00,Wunderground v.1.15,2013-05-21 10:31:00,
2013-05-21 06:32:00,64.1,63.8,29.98,WSW,256,0.0,0.0,99,0.00,,,0.00,Wunderground v.1.15,2013-05-21 10:32:00,
2013-05-21 06:33:00,64.1,63.8,29.98,WSW,256,0.0,0.0,99,0.00,,,0.00,Wunderground v.1.15,2013-05-21 10:33:00,
2013-05-21 06:34:00,64.1,63.8,29.99,WSW,256,0.0,0.0,99,0.00,,,0.00,Wunderground v.1.15,2013-05-21 10:34:00,
2013-05-21 06:36:00,64.1,63.8,29.99,WSW,256,0.0,0.0,99,0.00,,,0.00,Wunderground v.1.15,2013-05-21 10:36:00,
2013-05-21 06:37:00,64.2,63.9,29.99,WSW,256,0.0,0.0,99,0.00,,,0.00,Wunderground v.1.15,2013-05-21 10:37:00,
2013-05-21 06:38:00,64.2,63.9,29.99,WSW,256,0.0,0.0,99,0.00,,,0.00,Wunderground v.1.15,2013-05-21 10:38:00,
2013-05-21 06:40:00,64.2,63.9,29.99,WSW,256,0.0,0.0,99,0.00,,,0.00,Wunderground v.1.15,2013-05-21 10:40:00,
2013-05-21 06:42:00,64.2,63.9,29.99,WSW,256,0.0,0.0,99,0.00,,,0.00,Wunderground v.1.15,2013-05-21 10:42:00,
2013-05-21 06:43:00,64.2,63.9,29.99,WSW,256,0.0,0.0,99,0.00,,,0.00,Wunderground v.1.15,2013-05-21 10:43:00,
2013-05-21 06:45:00,64.2,63.9,29.99,WSW,256,0.0,0.0,99,0.00,,,0.00,Wunderground v.1.15,2013-05-21 10:45:00,
2013-05-21 06:47:00,64.3,64.0,29.99,WSW,256,0.0,0.0,99,0.00,,,0.00,Wunderground v.1.15,2013-05-21 10:47:00,
2013-05-21 06:48:00,64.4,64.1,29.99,WSW,256,0.0,0.0,99,0.00,,,0.00,Wunderground v.1.15,2013-05-21 10:48:00,
2013-05-21 06:49:00,64.4,64.1,29.99,WSW,255,0.0,0.0,99,0.00,,,0.00,Wunderground v.1.15,2013-05-21 10:49:00,
2013-05-21 06:50:00,64.4,64.1,29.99,WSW,256,0.0,0.0,99,0.00,,,0.00,Wunderground v.1.15,2013-05-21 10:50:00,
2013-05-21 06:52:00,64.6,64.3,30.00,WSW,256,0.0,0.0,99,0.00,,,0.00,Wunderground v.1.15,2013-05-21 10:52:00,
2013-05-21 06:54:00,64.6,64.3,30.00,WSW,256,0.0,0.0,99,0.00,,,0.00,Wunderground v.1.15,2013-05-21 10:54:00,
2013-05-21 06:55:00,64.6,64.3,30.00,WSW,256,0.0,0.0,99,0.00,,,0.00,Wunderground v.1.15,2013-05-21 10:55:00,
2013-05-21 06:57:00,64.7,64.4,30.00,WSW,256,0.0,0.0,99,0.00,,,0.00,Wunderground v.1.15,2013-05-21 10:57:00,
2013-05-21 06:58:00,64.7,64.4,30.00,WSW,255,0.0,0.0,99,0.00,,,0.00,Wunderground v.1.15,2013-05-21 10:58:00,
2013-05-21 06:59:00,64.7,64.4,30.00,WSW,256,0.0,0.0,99,0.00,,,0.00,Wunderground v.1.15,2013-05-21 10:59:00,
2013-05-21 07:00:00,64.8,64.5,30.00,WSW,255,0.0,0.0,99,0.00,,,0.00,Wunderground v.1.15,2013-05-21 11:00:00,
2013-05-21 07:03:00,64.9,64.6,30.00,WSW,257,0.0,0.0,99,0.00,,,0.00,Wunderground v.1.15,2013-05-21 11:03:00,
2013-05-21 07:04:00,64.9,64.6,30.00,WSW,256,0.0,0.0,99,0.00,,,0.00,Wunderground v.1.15,2013-05-21 11:04:00,
2013-05-21 07:05:00,64.9,64.6,30.00,WSW,256,0.0,0.0,99,0.00,,,0.00,Wunderground v.1.15,2013-05-21 11:05:00,
2013-05-21 07:08:00,65.0,64.7,30.00,WSW,256,0.0,0.0,99,0.00,,,0.00,Wunderground v.1.15,2013-05-21 11:08:00,
2013-05-21 07:10:00,65.1,64.8,30.00,WSW,256,0.0,0.0,99,0.00,,,0.00,Wunderground v.1.15,2013-05-21 11:10:00,
2013-05-21 07:13:00,65.2,64.9,30.00,WSW,256,0.0,0.0,99,0.00,,,0.00,Wunderground v.1.15,2013-05-21 11:13:00,
2013-05-21 07:15:00,65.2,64.9,30.01,WSW,256,0.0,0.0,99,0.00,,,0.00,Wunderground v.1.15,2013-05-21 11:15:00,
2013-05-21 07:18:00,65.2,64.9,30.01,WSW,256,0.0,0.0,99,0.00,,,0.00,Wunderground v.1.15,2013-05-21 11:18:00,
2013-05-21 07:20:00,65.2,64.9,30.01,WSW,256,0.0,0.0,99,0.00,,,0.00,Wunderground v.1.15,2013-05-21 11:20:00,
2013-05-21 07:21:00,65.2,64.9,30.01,WSW,256,0.0,0.0,99,0.00,,,0.00,Wunderground v.1.15,2013-05-21 11:21:00,
2013-05-21 07:23:00,65.3,65.0,30.01,WSW,256,0.0,0.0,99,0.00,,,0.00,Wunderground v.1.15,2013-05-21 11:23:00,
2013-05-21 07:24:00,65.3,65.0,30.01,WSW,256,0.0,0.0,99,0.00,,,0.00,Wunderground v.1.15,2013-05-21 11:24:00,
2013-05-21 07:25:00,65.3,65.0,30.01,WSW,256,0.0,0.0,99,0.00,,,0.00,Wunderground v.1.15,2013-05-21 11:25:00,
2013-05-21 07:26:00,65.4,65.1,30.01,WSW,256,0.0,0.0,99,0.00,,,0.00,Wunderground v.1.15,2013-05-21 11:26:00,
2013-05-21 07:29:00,65.5,65.2,30.01,WSW,256,0.0,0.0,99,0.00,,,0.00,Wunderground v.1.15,2013-05-21 11:29:00,
2013-05-21 07:30:00,65.5,65.2,30.01,WSW,256,0.0,0.0,99,0.00,,,0.00,Wunderground v.1.15,2013-05-21 11:30:00,
2013-05-21 07:31:00,65.5,65.2,30.01,WSW,256,0.0,0.0,99,0.00,,,0.00,Wunderground v.1.15,2013-05-21 11:31:00,
2013-05-21 07:34:00,65.6,65.3,30.01,WSW,256,0.0,0.0,99,0.00,,,0.00,Wunderground v.1.15,2013-05-21 11:34:00,
2013-05-21 07:35:00,65.6,65.3,30.01,WSW,256,0.0,0.0,99,0.00,,,0.00,Wunderground v.1.15,2013-05-21 11:35:00,
2013-05-21 07:36:00,65.6,65.3,30.01,WSW,256,0.0,0.0,99,0.00,,,0.00,Wunderground v.1.15,2013-05-21 11:36:00,
2013-05-21 07:39:00,65.7,65.4,30.01,WSW,256,0.0,0.0,99,0.00,,,0.00,Wunderground v.1.15,2013-05-21 11:39:00,
2013-05-21 07:40:00,65.7,65.4,30.01,WSW,256,0.0,0.0,99,0.00,,,0.00,Wunderground v.1.15,2013-05-21 11:40:00,
2013-05-21 07:41:00,65.7,65.4,30.01,WSW,256,0.0,0.0,99,0.00,,,0.00,Wunderground v.1.15,2013-05-21 11:41:00,
2013-05-21 07:44:00,65.9,65.6,30.02,WSW,256,0.0,0.0,99,0.00,,,0.00,Wunderground v.1.15,2013-05-21 11:44:00,
2013-05-21 07:45:00,65.9,65.6,30.02,WSW,256,0.0,0.0,99,0.00,,,0.00,Wunderground v.1.15,2013-05-21 11:45:00,
2013-05-21 07:46:00,65.9,65.6,30.01,WSW,256,0.0,0.0,99,0.00,,,0.00,Wunderground v.1.15,2013-05-21 11:46:00,
2013-05-21 07:50:00,66.0,65.7,30.01,WSW,256,0.0,0.0,99,0.00,,,0.00,Wunderground v.1.15,2013-05-21 11:50:00,
2013-05-21 07:51:00,66.0,65.7,30.01,WSW,256,0.0,0.0,99,0.00,,,0.00,Wunderground v.1.15,2013-05-21 11:51:00,
2013-05-21 07:55:00,66.1,65.8,30.01,WSW,256,0.0,0.0,99,0.00,,,0.00,Wunderground v.1.15,2013-05-21 11:55:00,
2013-05-21 07:56:00,66.1,65.8,30.01,WSW,256,0.0,0.0,99,0.00,,,0.00,Wunderground v.1.15,2013-05-21 11:56:00,
2013-05-21 07:57:00,66.1,65.8,30.01,WSW,256,0.0,0.0,99,0.00,,,0.00,Wunderground v.1.15,2013-05-21 11:57:00,
2013-05-21 08:00:00,66.3,66.0,30.01,WSW,256,0.0,0.0,99,0.00,,,0.00,Wunderground v.1.15,2013-05-21 12:00:00,
2013-05-21 08:02:00,66.3,66.0,30.01,WSW,256,0.0,0.0,99,0.00,,,0.00,Wunderground v.1.15,2013-05-21 12:02:00,
2013-05-21 08:05:00,66.4,66.1,30.01,WSW,256,0.0,0.0,99,0.00,,,0.00,Wunderground v.1.15,2013-05-21 12:05:00,
2013-05-21 08:07:00,66.5,66.2,30.02,WSW,256,0.0,0.0,99,0.00,,,0.00,Wunderground v.1.15,2013-05-21 12:07:00,
2013-05-21 08:11:00,66.7,66.4,30.02,WSW,256,0.0,0.0,99,0.00,,,0.00,Wunderground v.1.15,2013-05-21 12:11:00,
2013-05-21 08:12:00,66.7,66.4,30.02,WSW,256,0.0,0.0,99,0.00,,,0.00,Wunderground v.1.15,2013-05-21 12:12:00,
2013-05-21 08:13:00,66.7,66.4,30.02,WSW,256,0.0,0.0,99,0.00,,,0.00,Wunderground v.1.15,2013-05-21 12:13:00,
2013-05-21 08:16:00,66.9,66.6,30.02,WSW,256,0.0,0.0,99,0.00,,,0.00,Wunderground v.1.15,2013-05-21 12:16:00,
2013-05-21 08:17:00,66.9,66.6,30.02,WSW,256,0.0,0.0,99,0.00,,,0.00,Wunderground v.1.15,2013-05-21 12:17:00,
2013-05-21 08:18:00,66.9,66.6,30.02,WSW,256,0.0,0.0,99,0.00,,,0.00,Wunderground v.1.15,2013-05-21 12:18:00,
2013-05-21 08:21:00,67.1,66.8,30.02,WSW,256,0.0,0.0,99,0.00,,,0.00,Wunderground v.1.15,2013-05-21 12:21:00,
2013-05-21 08:22:00,67.1,66.8,30.02,WSW,256,0.0,0.0,99,0.00,,,0.00,Wunderground v.1.15,2013-05-21 12:22:00,
2013-05-21 08:23:00,67.1,66.8,30.02,WSW,256,0.0,0.0,99,0.00,,,0.00,Wunderground v.1.15,2013-05-21 12:23:00,
2013-05-21 08:24:00,67.2,66.9,30.02,WSW,256,0.0,0.0,99,0.00,,,0.00,Wunderground v.1.15,2013-05-21 12:24:00,
2013-05-21 08:26:00,67.2,66.9,30.02,WSW,256,0.0,0.0,99,0.00,,,0.00,Wunderground v.1.15,2013-05-21 12:26:00,
2013-05-21 08:27:00,67.1,66.8,30.02,WSW,256,0.0,0.0,99,0.00,,,0.00,Wunderground v.1.15,2013-05-21 12:27:00,
2013-05-21 08:28:00,67.2,66.9,30.02,WSW,256,0.0,0.0,99,0.00,,,0.00,Wunderground v.1.15,2013-05-21 12:28:00,
2013-05-21 08:29:00,67.2,66.9,30.02,WSW,256,0.0,0.0,99,0.00,,,0.00,Wunderground v.1.15,2013-05-21 12:29:00,
2013-05-21 08:31:00,67.2,66.9,30.02,WSW,256,0.0,0.0,99,0.00,,,0.00,Wunderground v.1.15,2013-05-21 12:31:00,
2013-05-21 08:32:00,67.3,67.0,30.02,WSW,256,0.0,0.0,99,0.00,,,0.00,Wunderground v.1.15,2013-05-21 12:32:00,
2013-05-21 08:34:00,67.3,67.0,30.02,WSW,256,0.0,0.0,99,0.00,,,0.00,Wunderground v.1.15,2013-05-21 12:34:00,
2013-05-21 08:35:00,67.4,67.1,30.02,WSW,256,0.0,0.0,99,0.00,,,0.00,Wunderground v.1.15,2013-05-21 12:35:00,
2013-05-21 08:36:00,67.5,67.2,30.02,WSW,256,0.0,0.0,99,0.00,,,0.00,Wunderground v.1.15,2013-05-21 12:36:00,
2013-05-21 08:37:00,67.5,67.2,30.02,WSW,256,0.0,0.0,99,0.00,,,0.00,Wunderground v.1.15,2013-05-21 12:37:00,
2013-05-21 08:38:00,67.5,67.2,30.02,WSW,256,0.0,0.0,99,0.00,,,0.00,Wunderground v.1.15,2013-05-21 12:38:00,
2013-05-21 08:39:00,67.5,67.2,30.02,WSW,256,0.0,0.0,99,0.00,,,0.00,Wunderground v.1.15,2013-05-21 12:39:00,
2013-05-21 08:40:00,67.5,67.2,30.02,WSW,256,0.0,0.0,99,0.00,,,0.00,Wunderground v.1.15,2013-05-21 12:40:00,
2013-05-21 08:42:00,67.6,67.3,30.02,WSW,256,0.0,0.0,99,0.00,,,0.00,Wunderground v.1.15,2013-05-21 12:42:00,
2013-05-21 08:43:00,67.6,67.3,30.02,WSW,255,0.0,0.0,99,0.00,,,0.00,Wunderground v.1.15,2013-05-21 12:43:00,
2013-05-21 08:44:00,67.6,67.3,30.02,WSW,255,0.0,0.0,99,0.00,,,0.00,Wunderground v.1.15,2013-05-21 12:44:00,
2013-05-21 08:45:00,67.7,67.4,30.02,WSW,256,0.0,0.0,99,0.00,,,0.00,Wunderground v.1.15,2013-05-21 12:45:00,
2013-05-21 08:47:00,67.8,67.5,30.02,WSW,256,0.0,0.0,99,0.00,,,0.00,Wunderground v.1.15,2013-05-21 12:47:00,
2013-05-21 08:48:00,67.8,67.5,30.02,WSW,256,0.0,0.0,99,0.00,,,0.00,Wunderground v.1.15,2013-05-21 12:48:00,
2013-05-21 08:50:00,67.9,67.6,30.02,WSW,256,0.0,0.0,99,0.00,,,0.00,Wunderground v.1.15,2013-05-21 12:50:00,
2013-05-21 08:52:00,68.0,67.7,30.02,WSW,256,0.0,0.0,99,0.00,,,0.00,Wunderground v.1.15,2013-05-21 12:52:00,
2013-05-21 08:53:00,68.0,67.7,30.02,WSW,256,0.0,0.0,99,0.00,,,0.00,Wunderground v.1.15,2013-05-21 12:53:00,
2013-05-21 08:55:00,68.1,67.8,30.02,WSW,256,0.0,0.0,99,0.00,,,0.00,Wunderground v.1.15,2013-05-21 12:55:00,
2013-05-21 08:58:00,68.3,68.0,30.02,WSW,255,0.0,0.0,99,0.00,,,0.00,Wunderground v.1.15,2013-05-21 12:58:00,
2013-05-21 08:59:00,68.3,68.0,30.02,WSW,256,0.0,0.0,99,0.00,,,0.00,Wunderground v.1.15,2013-05-21 12:59:00,
2013-05-21 09:00:00,68.4,68.1,30.02,WSW,256,0.0,0.0,99,0.00,,,0.00,Wunderground v.1.15,2013-05-21 13:00:00,
2013-05-21 09:01:00,68.4,68.1,30.02,WSW,255,0.0,0.0,99,0.00,,,0.00,Wunderground v.1.15,2013-05-21 13:01:00,
2013-05-21 09:03:00,68.6,68.3,30.02,North,354,0.0,0.0,99,0.00,,,0.00,Wunderground v.1.15,2013-05-21 13:03:00,
2013-05-21 09:04:00,68.5,68.2,30.02,North,11,0.0,0.0,99,0.00,,,0.00,Wunderground v.1.15,2013-05-21 13:04:00,
2013-05-21 09:06:00,68.6,68.3,30.02,NW,315,0.0,0.0,99,0.00,,,0.00,Wunderground v.1.15,2013-05-21 13:06:00,
2013-05-21 09:08:00,68.6,68.3,30.02,NW,315,0.0,0.0,99,0.00,,,0.00,Wunderground v.1.15,2013-05-21 13:08:00,
2013-05-21 09:09:00,68.7,68.4,30.02,NW,315,0.0,0.0,99,0.00,,,0.00,Wunderground v.1.15,2013-05-21 13:09:00,
2013-05-21 09:11:00,68.9,68.6,30.02,NW,314,0.0,0.0,99,0.00,,,0.00,Wunderground v.1.15,2013-05-21 13:11:00,
2013-05-21 09:13:00,69.1,68.8,30.02,NW,314,0.0,0.0,99,0.00,,,0.00,Wunderground v.1.15,2013-05-21 13:13:00,
2013-05-21 09:14:00,69.1,68.8,30.02,NW,315,0.0,0.0,99,0.00,,,0.00,Wunderground v.1.15,2013-05-21 13:14:00,
2013-05-21 09:16:00,69.1,68.8,30.02,NW,307,0.0,0.0,99,0.00,,,0.00,Wunderground v.1.15,2013-05-21 13:16:00,
2013-05-21 09:17:00,69.1,68.8,30.02,NW,308,0.0,0.0,99,0.00,,,0.00,Wunderground v.1.15,2013-05-21 13:17:00,
2013-05-21 09:18:00,69.0,68.4,30.03,NW,308,0.0,0.0,98,0.00,,,0.00,Wunderground v.1.15,2013-05-21 13:18:00,
2013-05-21 09:19:00,69.0,68.4,30.03,NW,308,0.0,0.0,98,0.00,,,0.00,Wunderground v.1.15,2013-05-21 13:19:00,
2013-05-21 09:22:00,69.3,68.7,30.02,NW,308,0.0,0.0,98,0.00,,,0.00,Wunderground v.1.15,2013-05-21 13:22:00,
2013-05-21 09:23:00,69.5,68.9,30.02,NW,308,0.0,0.0,98,0.00,,,0.00,Wunderground v.1.15,2013-05-21 13:23:00,
2013-05-21 09:24:00,69.5,69.2,30.02,NW,308,0.0,0.0,99,0.00,,,0.00,Wunderground v.1.15,2013-05-21 13:24:00,
2013-05-21 09:27:00,69.6,69.0,30.03,WSW,256,0.0,0.0,98,0.00,,,0.00,Wunderground v.1.15,2013-05-21 13:27:00,
2013-05-21 09:29:00,69.6,69.0,30.03,NNW,333,1.0,2.0,98,0.00,,,0.00,Wunderground v.1.15,2013-05-21 13:29:00,
2013-05-21 09:30:00,69.7,68.8,30.03,North,8,0.0,0.0,97,0.00,,,0.00,Wunderground v.1.15,2013-05-21 13:30:00,
2013-05-21 09:32:00,69.7,68.8,30.02,NE,45,0.0,0.0,97,0.00,,,0.00,Wunderground v.1.15,2013-05-21 13:32:00,
2013-05-21 09:33:00,69.8,68.9,30.03,NE,46,0.0,0.0,97,0.00,,,0.00,Wunderground v.1.15,2013-05-21 13:33:00,
2013-05-21 09:34:00,69.8,68.9,30.03,NE,46,0.0,0.0,97,0.00,,,0.00,Wunderground v.1.15,2013-05-21 13:34:00,
2013-05-21 09:35:00,69.9,69.0,30.03,NE,46,0.0,0.0,97,0.00,,,0.00,Wunderground v.1.15,2013-05-21 13:35:00,
2013-05-21 09:37:00,69.9,68.7,30.03,NE,44,0.0,1.0,96,0.00,,,0.00,Wunderground v.1.15,2013-05-21 13:37:00,
2013-05-21 09:38:00,70.0,68.8,30.03,NE,44,0.0,1.0,96,0.00,,,0.00,Wunderground v.1.15,2013-05-21 13:38:00,
2013-05-21 09:40:00,70.0,68.8,30.03,NE,44,0.0,0.0,96,0.00,,,0.00,Wunderground v.1.15,2013-05-21 13:40:00,
2013-05-21 09:42:00,70.1,68.9,30.03,NE,44,0.0,0.0,96,0.00,,,0.00,Wunderground v.1.15,2013-05-21 13:42:00,
2013-05-21 09:43:00,70.2,69.0,30.03,NE,44,0.0,0.0,96,0.00,,,0.00,Wunderground v.1.15,2013-05-21 13:43:00,
2013-05-21 09:45:00,70.3,69.1,30.03,NE,44,0.0,0.0,96,0.00,,,0.00,Wunderground v.1.15,2013-05-21 13:45:00,
2013-05-21 09:47:00,70.4,68.9,30.03,SW,232,0.0,3.0,95,0.00,,,0.00,Wunderground v.1.15,2013-05-21 13:47:00,
2013-05-21 09:48:00,70.4,68.9,30.03,WSW,238,1.0,3.0,95,0.00,,,0.00,Wunderground v.1.15,2013-05-21 13:48:00,
2013-05-21 09:50:00,70.4,68.6,30.03,SW,235,2.0,2.0,94,0.00,,,0.00,Wunderground v.1.15,2013-05-21 13:50:00,
2013-05-21 09:51:00,70.4,68.6,30.03,SW,235,1.0,2.0,94,0.00,,,0.00,Wunderground v.1.15,2013-05-21 13:51:00,
2013-05-21 09:52:00,70.4,68.6,30.03,SW,235,0.0,2.0,94,0.00,,,0.00,Wunderground v.1.15,2013-05-21 13:52:00,
2013-05-21 09:54:00,70.5,69.0,30.03,SW,235,0.0,2.0,95,0.00,,,0.00,Wunderground v.1.15,2013-05-21 13:54:00,
2013-05-21 09:55:00,70.7,69.2,30.03,SW,235,0.0,2.0,95,0.00,,,0.00,Wunderground v.1.15,2013-05-21 13:55:00,
2013-05-21 09:56:00,70.7,69.2,30.03,SW,235,0.0,2.0,95,0.00,,,0.00,Wunderground v.1.15,2013-05-21 13:56:00,
2013-05-21 09:57:00,70.9,69.4,30.03,SW,235,0.0,2.0,95,0.00,,,0.00,Wunderground v.1.15,2013-05-21 13:57:00,
2013-05-21 09:59:00,71.0,69.2,30.03,ESE,103,0.0,2.0,94,0.00,,,0.00,Wunderground v.1.15,2013-05-21 13:59:00,
2013-05-21 10:01:00,71.2,69.4,30.03,SW,229,2.0,3.0,94,0.00,,,0.00,Wunderground v.1.15,2013-05-21 14:01:00,
2013-05-21 10:03:00,71.3,69.2,30.03,SW,235,0.0,3.0,93,0.00,,,0.00,Wunderground v.1.15,2013-05-21 14:03:00,
2013-05-21 10:04:00,71.4,69.3,30.03,SW,235,0.0,3.0,93,0.00,,,0.00,Wunderground v.1.15,2013-05-21 14:04:00,
2013-05-21 10:06:00,71.5,69.4,30.02,SW,235,0.0,3.0,93,0.00,,,0.00,Wunderground v.1.15,2013-05-21 14:06:00,
2013-05-21 10:08:00,71.7,69.3,30.02,SW,235,0.0,3.0,92,0.00,,,0.00,Wunderground v.1.15,2013-05-21 14:08:00,
2013-05-21 10:09:00,71.9,69.4,30.02,WSW,248,0.0,3.0,92,0.00,,,0.00,Wunderground v.1.15,2013-05-21 14:09:00,
2013-05-21 10:11:00,72.1,69.6,30.02,West,279,1.0,1.0,92,0.00,,,0.00,Wunderground v.1.15,2013-05-21 14:11:00,
2013-05-21 10:14:00,72.7,70.2,30.02,WNW,283,0.0,1.0,92,0.00,,,0.00,Wunderground v.1.15,2013-05-21 14:14:00,
2013-05-21 10:15:00,72.8,70.3,30.02,NNW,340,0.0,1.0,92,0.00,,,0.00,Wunderground v.1.15,2013-05-21 14:15:00,
2013-05-21 10:16:00,73.1,70.6,30.02,NNW,340,0.0,1.0,92,0.00,,,0.00,Wunderground v.1.15,2013-05-21 14:16:00,
2013-05-21 10:19:00,73.6,70.8,30.02,SW,235,1.0,2.0,91,0.00,,,0.00,Wunderground v.1.15,2013-05-21 14:19:00,
2013-05-21 10:20:00,73.6,70.8,30.02,SW,235,0.0,0.0,91,0.00,,,0.00,Wunderground v.1.15,2013-05-21 14:20:00,
2013-05-21 10:21:00,73.9,70.8,30.02,SW,230,2.0,2.0,90,0.00,,,0.00,Wunderground v.1.15,2013-05-21 14:21:00,
2013-05-21 10:22:00,74.0,70.6,30.02,SW,229,3.0,4.0,89,0.00,,,0.00,Wunderground v.1.15,2013-05-21 14:22:00,
2013-05-21 10:24:00,74.0,70.2,30.02,WSW,248,1.0,4.0,88,0.00,,,0.00,Wunderground v.1.15,2013-05-21 14:24:00,
2013-05-21 10:25:00,74.0,70.2,30.02,SW,229,1.0,4.0,88,0.00,,,0.00,Wunderground v.1.15,2013-05-21 14:25:00,
2013-05-21 10:26:00,74.1,70.6,30.02,SW,229,0.0,4.0,89,0.00,,,0.00,Wunderground v.1.15,2013-05-21 14:26:00,
2013-05-21 10:27:00,74.2,70.7,30.02,SW,229,1.0,4.0,89,0.00,,,0.00,Wunderground v.1.15,2013-05-21 14:27:00,
2013-05-21 10:29:00,74.6,70.8,30.01,WSW,246,1.0,4.0,88,0.00,,,0.00,Wunderground v.1.15,2013-05-21 14:29:00,
2013-05-21 10:30:00,74.7,70.9,30.01,WNW,284,0.0,1.0,88,0.00,,,0.00,Wunderground v.1.15,2013-05-21 14:30:00,
2013-05-21 10:31:00,74.9,71.4,30.02,WNW,284,0.0,1.0,89,0.00,,,0.00,Wunderground v.1.15,2013-05-21 14:31:00,
2013-05-21 10:32:00,75.0,71.5,30.02,WNW,284,0.0,1.0,89,0.00,,,0.00,Wunderground v.1.15,2013-05-21 14:32:00,
2013-05-21 10:34:00,75.4,71.6,30.02,SW,229,0.0,3.0,88,0.00,,,0.00,Wunderground v.1.15,2013-05-21 14:34:00,
2013-05-21 10:36:00,75.7,71.9,30.02,SW,231,0.0,3.0,88,0.00,,,0.00,Wunderground v.1.15,2013-05-21 14:36:00,
2013-05-21 10:37:00,76.0,71.8,30.02,South,170,1.0,3.0,87,0.00,,,0.00,Wunderground v.1.15,2013-05-21 14:37:00,
2013-05-21 10:39:00,76.2,71.4,30.02,NNW,336,1.0,1.0,85,0.00,,,0.00,Wunderground v.1.15,2013-05-21 14:39:00,
2013-05-21 10:41:00,76.4,71.6,30.02,North,6,0.0,1.0,85,0.00,,,0.00,Wunderground v.1.15,2013-05-21 14:41:00,
2013-05-21 10:42:00,76.5,72.3,30.02,WNW,302,2.0,2.0,87,0.00,,,0.00,Wunderground v.1.15,2013-05-21 14:42:00,
2013-05-21 10:43:00,76.5,72.3,30.02,WNW,290,1.0,2.0,87,0.00,,,0.00,Wunderground v.1.15,2013-05-21 14:43:00,
2013-05-21 10:44:00,76.8,71.6,30.02,ENE,75,2.0,3.0,84,0.00,,,0.00,Wunderground v.1.15,2013-05-21 14:44:00,
2013-05-21 10:47:00,76.8,71.6,30.02,SW,218,1.0,3.0,84,0.00,,,0.00,Wunderground v.1.15,2013-05-21 14:47:00,
2013-05-21 10:48:00,76.7,71.1,30.02,SW,217,2.0,3.0,83,0.00,,,0.00,Wunderground v.1.15,2013-05-21 14:48:00,
2013-05-21 10:51:00,76.5,71.3,30.01,SW,236,1.0,1.0,84,0.00,,,0.00,Wunderground v.1.15,2013-05-21 14:51:00,
2013-05-21 10:52:00,76.4,71.2,30.02,SW,236,1.0,2.0,84,0.00,,,0.00,Wunderground v.1.15,2013-05-21 14:52:00,
2013-05-21 10:53:00,76.4,71.2,30.01,SW,236,0.0,2.0,84,0.00,,,0.00,Wunderground v.1.15,2013-05-21 14:53:00,
2013-05-21 10:56:00,76.6,71.4,30.01,West,263,0.0,2.0,84,0.00,,,0.00,Wunderground v.1.15,2013-05-21 14:56:00,
2013-05-21 10:57:00,76.7,71.1,30.02,WNW,297,0.0,2.0,83,0.00,,,0.00,Wunderground v.1.15,2013-05-21 14:57:00,
2013-05-21 10:58:00,76.9,71.7,30.01,East,82,1.0,2.0,84,0.00,,,0.00,Wunderground v.1.15,2013-05-21 14:58:00,
2013-05-21 11:02:00,77.2,71.6,30.02,ENE,68,0.0,2.0,83,0.00,,,0.00,Wunderground v.1.15,2013-05-21 15:02:00,
2013-05-21 11:04:00,77.6,73.1,30.01,ENE,67,0.0,2.0,86,0.00,,,0.00,Wunderground v.1.15,2013-05-21 15:04:00,
2013-05-21 11:07:00,77.8,71.9,30.02,WNW,293,1.0,3.0,82,0.00,,,0.00,Wunderground v.1.15,2013-05-21 15:07:00,
2013-05-21 11:08:00,77.9,72.0,30.02,West,278,1.0,3.0,82,0.00,,,0.00,Wunderground v.1.15,2013-05-21 15:08:00,
2013-05-21 11:10:00,78.2,73.0,30.02,West,278,0.0,1.0,84,0.00,,,0.00,Wunderground v.1.15,2013-05-21 15:10:00,
2013-05-21 11:12:00,78.6,73.0,30.02,WSW,252,2.0,2.0,83,0.00,,,0.00,Wunderground v.1.15,2013-05-21 15:12:00,
2013-05-21 11:13:00,78.7,73.1,30.02,North,356,2.0,3.0,83,0.00,,,0.00,Wunderground v.1.15,2013-05-21 15:13:00,
2013-05-21 11:15:00,78.9,72.2,30.02,WSW,246,1.0,3.0,80,0.00,,,0.00,Wunderground v.1.15,2013-05-21 15:15:00,
2013-05-21 11:17:00,78.9,72.2,30.02,WSW,239,3.0,4.0,80,0.00,,,0.00,Wunderground v.1.15,2013-05-21 15:17:00,
2013-05-21 11:18:00,78.8,72.1,30.02,SW,218,2.0,4.0,80,0.00,,,0.00,Wunderground v.1.15,2013-05-21 15:18:00,
2013-05-21 11:19:00,78.8,72.1,30.02,SW,231,1.0,4.0,80,0.00,,,0.00,Wunderground v.1.15,2013-05-21 15:19:00,
2013-05-21 11:20:00,78.7,72.0,30.01,SW,222,0.0,1.0,80,0.00,,,0.00,Wunderground v.1.15,2013-05-21 15:20:00,
2013-05-21 11:22:00,78.6,71.5,30.01,SW,215,0.0,2.0,79,0.00,,,0.00,Wunderground v.1.15,2013-05-21 15:22:00,
2013-05-21 11:23:00,78.6,71.5,30.01,SW,215,0.0,2.0,79,0.00,,,0.00,Wunderground v.1.15,2013-05-21 15:23:00,
2013-05-21 11:24:00,78.7,72.4,30.01,SW,215,0.0,2.0,81,0.00,,,0.00,Wunderground v.1.15,2013-05-21 15:24:00,
2013-05-21 11:25:00,78.9,72.6,30.01,SW,214,0.0,2.0,81,0.00,,,0.00,Wunderground v.1.15,2013-05-21 15:25:00,
2013-05-21 11:27:00,79.2,72.9,30.01,SW,224,0.0,2.0,81,0.00,,,0.00,Wunderground v.1.15,2013-05-21 15:27:00,
2013-05-21 11:28:00,79.4,73.1,30.01,SW,224,0.0,2.0,81,0.00,,,0.00,Wunderground v.1.15,2013-05-21 15:28:00,
2013-05-21 11:30:00,79.6,72.9,30.01,North,359,2.0,2.0,80,0.00,,,0.00,Wunderground v.1.15,2013-05-21 15:30:00,
2013-05-21 11:32:00,79.8,72.3,30.01,North,356,2.0,3.0,78,0.00,,,0.00,Wunderground v.1.15,2013-05-21 15:32:00,
2013-05-21 11:33:00,79.8,72.3,30.01,North,358,2.0,3.0,78,0.00,,,0.00,Wunderground v.1.15,2013-05-21 15:33:00,
2013-05-21 11:34:00,79.8,72.3,30.01,WNW,294,2.0,3.0,78,0.00,,,0.00,Wunderground v.1.15,2013-05-21 15:34:00,
2013-05-21 11:35:00,79.8,72.3,30.01,WNW,294,0.0,3.0,78,0.00,,,0.00,Wunderground v.1.15,2013-05-21 15:35:00,
2013-05-21 11:36:00,79.9,72.4,30.01,WNW,294,0.0,3.0,78,0.00,,,0.00,Wunderground v.1.15,2013-05-21 15:36:00,
2013-05-21 11:37:00,80.0,72.5,30.01,SW,232,1.0,3.0,78,0.00,,,0.00,Wunderground v.1.15,2013-05-21 15:37:00,
2013-05-21 11:39:00,80.1,73.0,30.01,SW,228,2.0,3.0,79,0.00,,,0.00,Wunderground v.1.15,2013-05-21 15:39:00,
2013-05-21 11:41:00,80.2,72.3,30.01,WSW,238,2.0,4.0,77,0.00,,,0.00,Wunderground v.1.15,2013-05-21 15:41:00,
2013-05-21 11:43:00,80.5,73.8,30.01,WSW,239,1.0,4.0,80,0.00,,,0.00,Wunderground v.1.15,2013-05-21 15:43:00,
2013-05-21 11:44:00,80.6,72.3,30.01,WSW,239,0.0,4.0,76,0.00,,,0.00,Wunderground v.1.15,2013-05-21 15:44:00,
2013-05-21 11:46:00,80.9,72.6,30.01,NNW,342,1.0,4.0,76,0.00,,,0.00,Wunderground v.1.15,2013-05-21 15:46:00,
2013-05-21 11:48:00,80.9,73.0,30.01,NNW,342,0.0,4.0,77,0.00,,,0.00,Wunderground v.1.15,2013-05-21 15:48:00,
2013-05-21 11:49:00,81.1,72.8,30.01,NNW,342,0.0,4.0,76,0.00,,,0.00,Wunderground v.1.15,2013-05-21 15:49:00,
2013-05-21 11:51:00,81.2,72.9,30.01,WSW,240,2.0,4.0,76,0.00,,,0.00,Wunderground v.1.15,2013-05-21 15:51:00,
2013-05-21 11:54:00,81.2,72.1,30.01,SE,128,1.0,4.0,74,0.00,,,0.00,Wunderground v.1.15,2013-05-21 15:54:00,
2013-05-21 11:55:00,81.2,72.1,30.01,SE,128,0.0,4.0,74,0.00,,,0.00,Wunderground v.1.15,2013-05-21 15:55:00,
2013-05-21 11:56:00,81.5,72.8,30.01,WSW,246,2.0,4.0,75,0.00,,,0.00,Wunderground v.1.15,2013-05-21 15:56:00,
2013-05-21 11:57:00,81.5,73.2,30.01,SW,235,1.0,4.0,76,0.00,,,0.00,Wunderground v.1.15,2013-05-21 15:57:00,
2013-05-21 11:59:00,81.8,73.5,30.01,SSW,203,2.0,4.0,76,0.00,,,0.00,Wunderground v.1.15,2013-05-21 15:59:00,
2013-05-21 12:00:00,81.8,72.7,30.01,WSW,240,1.0,1.0,74,0.00,,,0.00,Wunderground v.1.15,2013-05-21 16:00:00,
2013-05-21 12:01:00,81.8,72.7,30.01,SW,233,4.0,4.0,74,0.00,,,0.00,Wunderground v.1.15,2013-05-21 16:01:00,
2013-05-21 12:02:00,81.8,72.7,30.01,WSW,243,3.0,4.0,74,0.00,,,0.00,Wunderground v.1.15,2013-05-21 16:02:00,
2013-05-21 12:04:00,81.7,72.2,30.01,SSW,210,4.0,4.0,73,0.00,,,0.00,Wunderground v.1.15,2013-05-21 16:04:00,
2013-05-21 12:05:00,81.6,72.1,30.01,WSW,251,2.0,4.0,73,0.00,,,0.00,Wunderground v.1.15,2013-05-21 16:05:00,
2013-05-21 12:07:00,81.5,72.8,30.01,SW,224,1.0,4.0,75,0.00,,,0.00,Wunderground v.1.15,2013-05-21 16:07:00,
2013-05-21 12:09:00,81.6,71.7,30.00,East,94,0.0,4.0,72,0.00,,,0.00,Wunderground v.1.15,2013-05-21 16:09:00,
2013-05-21 12:10:00,81.7,72.6,30.00,East,83,1.0,2.0,74,0.00,,,0.00,Wunderground v.1.15,2013-05-21 16:10:00,
2013-05-21 12:12:00,81.8,72.7,30.00,East,84,0.0,2.0,74,0.00,,,0.00,Wunderground v.1.15,2013-05-21 16:12:00,
2013-05-21 12:14:00,82.3,73.6,30.00,SW,235,2.0,2.0,75,0.00,,,0.00,Wunderground v.1.15,2013-05-21 16:14:00,
2013-05-21 12:15:00,82.6,73.1,30.00,SSW,197,1.0,2.0,73,0.00,,,0.00,Wunderground v.1.15,2013-05-21 16:15:00,
2013-05-21 12:16:00,82.6,73.1,30.00,SSW,196,1.0,2.0,73,0.00,,,0.00,Wunderground v.1.15,2013-05-21 16:16:00,
2013-05-21 12:17:00,82.9,73.4,30.00,WSW,250,2.0,3.0,73,0.00,,,0.00,Wunderground v.1.15,2013-05-21 16:17:00,
2013-05-21 12:19:00,82.8,72.4,30.00,SW,225,3.0,3.0,71,0.00,,,0.00,Wunderground v.1.15,2013-05-21 16:19:00,
2013-05-21 12:20:00,82.7,72.7,30.00,SSW,201,1.0,2.0,72,0.00,,,0.00,Wunderground v.1.15,2013-05-21 16:20:00,
2013-05-21 12:21:00,82.7,72.7,30.00,WSW,243,1.0,2.0,72,0.00,,,0.00,Wunderground v.1.15,2013-05-21 16:21:00,
2013-05-21 12:22:00,82.7,72.7,30.00,SW,214,2.0,4.0,72,0.00,,,0.00,Wunderground v.1.15,2013-05-21 16:22:00,
2013-05-21 12:24:00,82.6,72.2,30.00,SSW,209,0.0,5.0,71,0.00,,,0.00,Wunderground v.1.15,2013-05-21 16:24:00,
2013-05-21 12:25:00,82.6,71.8,30.00,SSW,212,2.0,5.0,70,0.00,,,0.00,Wunderground v.1.15,2013-05-21 16:25:00,
2013-05-21 12:26:00,82.6,72.2,30.00,West,262,1.0,5.0,71,0.00,,,0.00,Wunderground v.1.15,2013-05-21 16:26:00,
2013-05-21 12:27:00,82.6,73.1,30.00,WSW,257,1.0,5.0,73,0.00,,,0.00,Wunderground v.1.15,2013-05-21 16:27:00,
2013-05-21 12:29:00,82.8,72.4,30.00,SW,235,1.0,5.0,71,0.00,,,0.00,Wunderground v.1.15,2013-05-21 16:29:00,
2013-05-21 12:31:00,82.9,72.9,30.00,SW,222,1.0,1.0,72,0.00,,,0.00,Wunderground v.1.15,2013-05-21 16:31:00,
2013-05-21 12:32:00,83.0,72.2,29.99,NNW,338,1.0,3.0,70,0.00,,,0.00,Wunderground v.1.15,2013-05-21 16:32:00,
2013-05-21 12:33:00,83.1,72.3,29.99,SW,218,3.0,3.0,70,0.00,,,0.00,Wunderground v.1.15,2013-05-21 16:33:00,
2013-05-21 12:34:00,83.1,71.9,29.99,West,269,0.0,3.0,69,0.00,,,0.00,Wunderground v.1.15,2013-05-21 16:34:00,
2013-05-21 12:36:00,83.2,72.8,29.99,West,269,0.0,3.0,71,0.00,,,0.00,Wunderground v.1.15,2013-05-21 16:36:00,
2013-05-21 12:37:00,83.4,73.8,30.00,SSW,207,0.0,3.0,73,0.00,,,0.00,Wunderground v.1.15,2013-05-21 16:37:00,
2013-05-21 12:38:00,83.5,73.9,30.00,ENE,58,2.0,3.0,73,0.00,,,0.00,Wunderground v.1.15,2013-05-21 16:38:00,
2013-05-21 12:40:00,83.7,73.3,29.99,NE,44,0.0,1.0,71,0.00,,,0.00,Wunderground v.1.15,2013-05-21 16:40:00,
2013-05-21 12:41:00,83.8,73.4,30.00,NE,45,1.0,1.0,71,0.00,,,0.00,Wunderground v.1.15,2013-05-21 16:41:00,
2013-05-21 12:43:00,83.7,73.3,29.99,NE,46,0.0,1.0,71,0.00,,,0.00,Wunderground v.1.15,2013-05-21 16:43:00,
2013-05-21 12:45:00,83.6,72.8,29.99,NE,46,0.0,1.0,70,0.00,,,0.00,Wunderground v.1.15,2013-05-21 16:45:00,
2013-05-21 12:46:00,83.5,72.3,29.99,NE,45,0.0,1.0,69,0.00,,,0.00,Wunderground v.1.15,2013-05-21 16:46:00,
2013-05-21 12:48:00,83.3,71.6,29.99,NE,50,0.0,1.0,68,0.00,,,0.00,Wunderground v.1.15,2013-05-21 16:48:00,
2013-05-21 12:49:00,83.3,71.6,29.99,NE,50,0.0,1.0,68,0.00,,,0.00,Wunderground v.1.15,2013-05-21 16:49:00,
2013-05-21 12:50:00,83.3,72.5,29.99,NE,50,0.0,0.0,70,0.00,,,0.00,Wunderground v.1.15,2013-05-21 16:50:00,
2013-05-21 12:51:00,83.3,72.9,29.99,NE,49,0.0,0.0,71,0.00,,,0.00,Wunderground v.1.15,2013-05-21 16:51:00,
2013-05-21 12:53:00,83.3,72.1,29.99,West,272,1.0,1.0,69,0.00,,,0.00,Wunderground v.1.15,2013-05-21 16:53:00,
2013-05-21 12:54:00,83.4,72.2,29.99,West,274,1.0,1.0,69,0.00,,,0.00,Wunderground v.1.15,2013-05-21 16:54:00,
2013-05-21 12:55:00,83.4,71.7,29.99,NNW,333,0.0,1.0,68,0.00,,,0.00,Wunderground v.1.15,2013-05-21 16:55:00,
2013-05-21 12:57:00,83.4,72.2,29.99,NE,34,0.0,1.0,69,0.00,,,0.00,Wunderground v.1.15,2013-05-21 16:57:00,
2013-05-21 12:58:00,83.3,72.5,29.99,NE,36,0.0,1.0,70,0.00,,,0.00,Wunderground v.1.15,2013-05-21 16:58:00,
2013-05-21 12:59:00,83.3,72.9,29.99,NE,35,0.0,1.0,71,0.00,,,0.00,Wunderground v.1.15,2013-05-21 16:59:00,
2013-05-21 13:01:00,83.3,72.9,29.99,NE,35,0.0,0.0,71,0.00,,,0.00,Wunderground v.1.15,2013-05-21 17:01:00,
2013-05-21 13:02:00,83.3,72.9,29.99,West,274,0.0,0.0,71,0.00,,,0.00,Wunderground v.1.15,2013-05-21 17:02:00,
2013-05-21 13:04:00,83.2,72.0,29.99,WSW,238,0.0,0.0,69,0.00,,,0.00,Wunderground v.1.15,2013-05-21 17:04:00,
2013-05-21 13:06:00,83.4,72.2,29.99,NW,316,0.0,0.0,69,0.00,,,0.00,Wunderground v.1.15,2013-05-21 17:06:00,
2013-05-21 13:07:00,83.4,72.2,29.99,North,1,0.0,0.0,69,0.00,,,0.00,Wunderground v.1.15,2013-05-21 17:07:00,
2013-05-21 13:09:00,83.5,71.8,29.99,NNE,33,1.0,2.0,68,0.00,,,0.00,Wunderground v.1.15,2013-05-21 17:09:00,
2013-05-21 13:11:00,83.3,71.6,29.99,North,351,1.0,1.0,68,0.00,,,0.00,Wunderground v.1.15,2013-05-21 17:11:00,
2013-05-21 13:12:00,83.4,71.3,29.99,WNW,290,1.0,2.0,67,0.00,,,0.00,Wunderground v.1.15,2013-05-21 17:12:00,
2013-05-21 13:14:00,83.4,71.7,29.99,WNW,282,1.0,2.0,68,0.00,,,0.00,Wunderground v.1.15,2013-05-21 17:14:00,
2013-05-21 13:15:00,83.4,71.7,29.99,West,274,1.0,2.0,68,0.00,,,0.00,Wunderground v.1.15,2013-05-21 17:15:00,
2013-05-21 13:16:00,83.5,71.8,29.99,West,276,0.0,2.0,68,0.00,,,0.00,Wunderground v.1.15,2013-05-21 17:16:00,
2013-05-21 13:17:00,83.5,72.7,29.99,West,276,0.0,2.0,70,0.00,,,0.00,Wunderground v.1.15,2013-05-21 17:17:00,
2013-05-21 13:19:00,83.7,72.0,29.99,NE,41,0.0,3.0,68,0.00,,,0.00,Wunderground v.1.15,2013-05-21 17:19:00,
2013-05-21 13:20:00,83.8,73.4,29.99,NE,46,1.0,2.0,71,0.00,,,0.00,Wunderground v.1.15,2013-05-21 17:20:00,
2013-05-21 13:21:00,84.0,72.3,29.99,NE,44,0.0,2.0,68,0.00,,,0.00,Wunderground v.1.15,2013-05-21 17:21:00,
2013-05-21 13:23:00,84.1,73.7,29.99,NE,44,0.0,2.0,71,0.00,,,0.00,Wunderground v.1.15,2013-05-21 17:23:00,
2013-05-21 13:24:00,84.1,72.4,29.99,NE,45,0.0,2.0,68,0.00,,,0.00,Wunderground v.1.15,2013-05-21 17:24:00,
2013-05-21 13:25:00,84.1,72.0,29.99,NE,46,1.0,2.0,67,0.00,,,0.00,Wunderground v.1.15,2013-05-21 17:25:00,
2013-05-21 13:27:00,84.0,72.3,29.99,NE,45,0.0,2.0,68,0.00,,,0.00,Wunderground v.1.15,2013-05-21 17:27:00,
2013-05-21 13:28:00,84.0,71.9,29.99,WNW,285,0.0,2.0,67,0.00,,,0.00,Wunderground v.1.15,2013-05-21 17:28:00,
2013-05-21 13:29:00,84.0,72.3,29.99,WNW,285,0.0,2.0,68,0.00,,,0.00,Wunderground v.1.15,2013-05-21 17:29:00,
2013-05-21 13:30:00,84.1,73.3,29.99,WNW,285,0.0,1.0,70,0.00,,,0.00,Wunderground v.1.15,2013-05-21 17:30:00,
2013-05-21 13:32:00,84.1,72.8,29.99,WNW,285,0.0,1.0,69,0.00,,,0.00,Wunderground v.1.15,2013-05-21 17:32:00,
2013-05-21 13:33:00,84.0,73.2,29.99,WNW,285,0.0,1.0,70,0.00,,,0.00,Wunderground v.1.15,2013-05-21 17:33:00,
2013-05-21 13:34:00,84.1,72.8,29.99,WNW,285,0.0,1.0,69,0.00,,,0.00,Wunderground v.1.15,2013-05-21 17:34:00,
2013-05-21 13:35:00,84.1,73.3,29.99,WNW,285,0.0,1.0,70,0.00,,,0.00,Wunderground v.1.15,2013-05-21 17:35:00,
2013-05-21 13:37:00,84.0,71.9,29.99,WNW,285,0.0,1.0,67,0.00,,,0.00,Wunderground v.1.15,2013-05-21 17:37:00,
2013-05-21 13:38:00,84.0,72.3,29.98,WNW,285,0.0,1.0,68,0.00,,,0.00,Wunderground v.1.15,2013-05-21 17:38:00,
2013-05-21 13:40:00,83.9,71.8,29.98,WNW,285,0.0,0.0,67,0.00,,,0.00,Wunderground v.1.15,2013-05-21 17:40:00,
2013-05-21 13:42:00,83.9,72.2,29.98,WNW,285,0.0,0.0,68,0.00,,,0.00,Wunderground v.1.15,2013-05-21 17:42:00,
2013-05-21 13:43:00,83.9,72.6,29.98,WNW,285,0.0,0.0,69,0.00,,,0.00,Wunderground v.1.15,2013-05-21 17:43:00,
2013-05-21 13:45:00,83.9,73.1,29.98,WNW,285,0.0,0.0,70,0.00,,,0.00,Wunderground v.1.15,2013-05-21 17:45:00,
2013-05-21 13:46:00,83.9,71.8,29.98,WNW,285,0.0,0.0,67,0.00,,,0.00,Wunderground v.1.15,2013-05-21 17:46:00,
2013-05-21 13:47:00,83.9,71.8,29.98,WNW,285,0.0,0.0,67,0.00,,,0.00,Wunderground v.1.15,2013-05-21 17:47:00,
2013-05-21 13:49:00,83.9,71.8,29.98,WNW,285,0.0,0.0,67,0.00,,,0.00,Wunderground v.1.15,2013-05-21 17:49:00,
2013-05-21 13:50:00,84.0,72.7,29.98,WNW,284,0.0,0.0,69,0.00,,,0.00,Wunderground v.1.15,2013-05-21 17:50:00,
2013-05-21 13:51:00,84.1,72.8,29.98,SW,233,0.0,0.0,69,0.00,,,0.00,Wunderground v.1.15,2013-05-21 17:51:00,
2013-05-21 13:53:00,84.2,72.5,29.98,SW,233,1.0,3.0,68,0.00,,,0.00,Wunderground v.1.15,2013-05-21 17:53:00,
2013-05-21 13:54:00,84.2,72.5,29.98,SW,232,1.0,3.0,68,0.00,,,0.00,Wunderground v.1.15,2013-05-21 17:54:00,
2013-05-21 13:55:00,84.4,74.0,29.98,SW,232,1.0,3.0,71,0.00,,,0.00,Wunderground v.1.15,2013-05-21 17:55:00,
2013-05-21 13:56:00,84.4,74.0,29.98,SW,233,1.0,3.0,71,0.00,,,0.00,Wunderground v.1.15,2013-05-21 17:56:00,
2013-05-21 13:58:00,84.9,72.7,29.97,SW,233,0.0,3.0,67,0.00,,,0.00,Wunderground v.1.15,2013-05-21 17:58:00,
2013-05-21 13:59:00,85.0,72.4,29.98,South,169,0.0,3.0,66,0.00,,,0.00,Wunderground v.1.15,2013-05-21 17:59:00,
2013-05-21 14:01:00,85.3,73.1,29.97,SSE,152,0.0,0.0,67,0.00,,,0.00,Wunderground v.1.15,2013-05-21 18:01:00,
2013-05-21 14:02:00,85.5,73.3,29.97,SE,145,0.0,0.0,67,0.00,,,0.00,Wunderground v.1.15,2013-05-21 18:02:00,
2013-05-21 14:03:00,85.7,73.5,29.97,SE,146,0.0,0.0,67,0.00,,,0.00,Wunderground v.1.15,2013-05-21 18:03:00,
2013-05-21 14:04:00,85.8,72.7,29.97,SE,145,0.0,0.0,65,0.00,,,0.00,Wunderground v.1.15,2013-05-21 18:04:00,
2013-05-21 14:06:00,85.9,73.2,29.97,ESE,115,1.0,3.0,66,0.00,,,0.00,Wunderground v.1.15,2013-05-21 18:06:00,
2013-05-21 14:07:00,85.9,75.0,29.97,ESE,115,0.0,3.0,70,0.00,,,0.00,Wunderground v.1.15,2013-05-21 18:07:00,
2013-05-21 14:08:00,86.0,73.3,29.97,ESE,115,0.0,3.0,66,0.00,,,0.00,Wunderground v.1.15,2013-05-21 18:08:00,
2013-05-21 14:09:00,86.1,73.0,29.96,NW,321,1.0,3.0,65,0.00,,,0.00,Wunderground v.1.15,2013-05-21 18:09:00,
2013-05-21 14:11:00,86.3,74.0,29.96,NE,41,2.0,2.0,67,0.00,,,0.00,Wunderground v.1.15,2013-05-21 18:11:00,
2013-05-21 14:12:00,86.3,73.1,29.97,ENE,67,1.0,2.0,65,0.00,,,0.00,Wunderground v.1.15,2013-05-21 18:12:00,
2013-05-21 14:13:00,86.2,72.1,29.97,ENE,65,2.0,2.0,63,0.00,,,0.00,Wunderground v.1.15,2013-05-21 18:13:00,
2013-05-21 14:14:00,86.2,72.1,29.97,ENE,65,1.0,2.0,63,0.00,,,0.00,Wunderground v.1.15,2013-05-21 18:14:00,
2013-05-21 14:15:00,86.0,71.5,29.96,NNW,330,1.0,2.0,62,0.00,,,0.00,Wunderground v.1.15,2013-05-21 18:15:00,
2013-05-21 14:16:00,85.9,72.3,29.96,ENE,64,1.0,2.0,64,0.00,,,0.00,Wunderground v.1.15,2013-05-21 18:16:00,
2013-05-21 14:17:00,85.7,71.2,29.96,ENE,63,1.0,2.0,62,0.00,,,0.00,Wunderground v.1.15,2013-05-21 18:17:00,
2013-05-21 14:19:00,85.7,72.1,29.96,ENE,63,0.0,2.0,64,0.00,,,0.00,Wunderground v.1.15,2013-05-21 18:19:00,
2013-05-21 14:20:00,85.7,72.1,29.96,NNE,18,0.0,1.0,64,0.00,,,0.00,Wunderground v.1.15,2013-05-21 18:20:00,
2013-05-21 14:21:00,85.8,72.2,29.96,NNE,18,0.0,1.0,64,0.00,,,0.00,Wunderground v.1.15,2013-05-21 18:21:00,
2013-05-21 14:23:00,86.0,74.2,29.96,SSE,163,1.0,1.0,68,0.00,,,0.00,Wunderground v.1.15,2013-05-21 18:23:00,
2013-05-21 14:24:00,86.1,72.5,29.96,SSE,163,1.0,1.0,64,0.00,,,0.00,Wunderground v.1.15,2013-05-21 18:24:00,
2013-05-21 14:25:00,86.1,73.4,29.96,ENE,75,1.0,2.0,66,0.00,,,0.00,Wunderground v.1.15,2013-05-21 18:25:00,
2013-05-21 14:27:00,86.0,70.0,29.96,North,356,1.0,2.0,59,0.00,,,0.00,Wunderground v.1.15,2013-05-21 18:27:00,
2013-05-21 14:28:00,85.9,70.4,29.96,East,91,1.0,2.0,60,0.00,,,0.00,Wunderground v.1.15,2013-05-21 18:28:00,
2013-05-21 14:29:00,85.9,70.4,29.96,East,91,2.0,2.0,60,0.00,,,0.00,Wunderground v.1.15,2013-05-21 18:29:00,
2013-05-21 14:30:00,85.8,70.8,29.96,East,88,1.0,1.0,61,0.00,,,0.00,Wunderground v.1.15,2013-05-21 18:30:00,
2013-05-21 14:32:00,85.8,71.7,29.95,SE,125,1.0,1.0,63,0.00,,,0.00,Wunderground v.1.15,2013-05-21 18:32:00,
2013-05-21 14:33:00,86.0,71.5,29.95,East,87,0.0,2.0,62,0.00,,,0.00,Wunderground v.1.15,2013-05-21 18:33:00,
2013-05-21 14:34:00,86.0,71.5,29.95,ENE,78,0.0,2.0,62,0.00,,,0.00,Wunderground v.1.15,2013-05-21 18:34:00,
2013-05-21 14:35:00,86.1,73.0,29.95,ENE,68,0.0,2.0,65,0.00,,,0.00,Wunderground v.1.15,2013-05-21 18:35:00,
2013-05-21 14:37:00,86.2,71.2,29.95,NNW,347,0.0,2.0,61,0.00,,,0.00,Wunderground v.1.15,2013-05-21 18:37:00,
2013-05-21 14:39:00,86.5,71.5,29.95,NNW,347,0.0,2.0,61,0.00,,,0.00,Wunderground v.1.15,2013-05-21 18:39:00,
2013-05-21 14:40:00,86.7,72.1,29.95,NNE,19,0.0,0.0,62,0.00,,,0.00,Wunderground v.1.15,2013-05-21 18:40:00,
2013-05-21 14:42:00,86.9,71.3,29.95,NNE,19,0.0,0.0,60,0.00,,,0.00,Wunderground v.1.15,2013-05-21 18:42:00,
2013-05-21 14:44:00,87.1,70.0,29.94,NE,40,1.0,2.0,57,0.00,,,0.00,Wunderground v.1.15,2013-05-21 18:44:00,
2013-05-21 14:45:00,87.2,70.6,29.94,NNW,345,0.0,2.0,58,0.00,,,0.00,Wunderground v.1.15,2013-05-21 18:45:00,
2013-05-21 14:47:00,87.3,71.2,29.94,NE,36,1.0,2.0,59,0.00,,,0.00,Wunderground v.1.15,2013-05-21 18:47:00,
2013-05-21 14:49:00,87.3,71.7,29.94,NNW,337,0.0,2.0,60,0.00,,,0.00,Wunderground v.1.15,2013-05-21 18:49:00,
2013-05-21 14:50:00,87.2,70.6,29.94,NNE,21,2.0,2.0,58,0.00,,,0.00,Wunderground v.1.15,2013-05-21 18:50:00,
2013-05-21 14:51:00,87.1,70.5,29.94,NW,325,2.0,2.0,58,0.00,,,0.00,Wunderground v.1.15,2013-05-21 18:51:00,
2013-05-21 14:52:00,87.0,70.4,29.94,NW,325,0.0,2.0,58,0.00,,,0.00,Wunderground v.1.15,2013-05-21 18:52:00,
2013-05-21 14:54:00,86.8,71.7,29.94,NNE,19,1.0,2.0,61,0.00,,,0.00,Wunderground v.1.15,2013-05-21 18:54:00,
2013-05-21 14:55:00,86.7,71.6,29.94,NE,49,1.0,2.0,61,0.00,,,0.00,Wunderground v.1.15,2013-05-21 18:55:00,
2013-05-21 14:56:00,86.5,70.5,29.94,NE,34,1.0,2.0,59,0.00,,,0.00,Wunderground v.1.15,2013-05-21 18:56:00,
2013-05-21 14:59:00,86.3,70.3,29.94,North,349,1.0,3.0,59,0.00,,,0.00,Wunderground v.1.15,2013-05-21 18:59:00,
2013-05-21 15:00:00,86.2,70.7,29.94,NNE,12,2.0,3.0,60,0.00,,,0.00,Wunderground v.1.15,2013-05-21 19:00:00,
2013-05-21 15:02:00,85.9,70.9,29.94,ENE,58,0.0,3.0,61,0.00,,,0.00,Wunderground v.1.15,2013-05-21 19:02:00,
2013-05-21 15:04:00,86.0,71.5,29.94,West,274,1.0,3.0,62,0.00,,,0.00,Wunderground v.1.15,2013-05-21 19:04:00,
2013-05-21 15:05:00,86.1,72.0,29.94,WSW,246,1.0,3.0,63,0.00,,,0.00,Wunderground v.1.15,2013-05-21 19:05:00,
2013-05-21 15:07:00,86.1,70.6,29.94,SW,235,3.0,4.0,60,0.00,,,0.00,Wunderground v.1.15,2013-05-21 19:07:00,
2013-05-21 15:09:00,86.3,71.3,29.94,SW,236,0.0,4.0,61,0.00,,,0.00,Wunderground v.1.15,2013-05-21 19:09:00,
2013-05-21 15:10:00,86.4,71.8,29.93,South,185,1.0,4.0,62,0.00,,,0.00,Wunderground v.1.15,2013-05-21 19:10:00,
2013-05-21 15:11:00,86.4,71.4,29.93,SE,145,1.0,4.0,61,0.00,,,0.00,Wunderground v.1.15,2013-05-21 19:11:00,
2013-05-21 15:12:00,86.4,71.4,29.93,SSE,167,1.0,4.0,61,0.00,,,0.00,Wunderground v.1.15,2013-05-21 19:12:00,
2013-05-21 15:15:00,86.4,69.9,29.93,SSW,212,0.0,4.0,58,0.00,,,0.00,Wunderground v.1.15,2013-05-21 19:15:00,
2013-05-21 15:16:00,86.4,70.9,29.93,East,88,1.0,4.0,60,0.00,,,0.00,Wunderground v.1.15,2013-05-21 19:16:00,
2013-05-21 15:17:00,86.4,71.8,29.93,West,270,1.0,4.0,62,0.00,,,0.00,Wunderground v.1.15,2013-05-21 19:17:00,
2013-05-21 15:20:00,86.4,73.2,29.93,ENE,75,0.0,1.0,65,0.00,,,0.00,Wunderground v.1.15,2013-05-21 19:20:00,
2013-05-21 15:21:00,86.4,71.4,29.93,ENE,73,0.0,1.0,61,0.00,,,0.00,Wunderground v.1.15,2013-05-21 19:21:00,
2013-05-21 15:22:00,86.5,71.9,29.93,ENE,69,0.0,1.0,62,0.00,,,0.00,Wunderground v.1.15,2013-05-21 19:22:00,
2013-05-21 15:23:00,86.6,72.0,29.93,ENE,67,1.0,1.0,62,0.00,,,0.00,Wunderground v.1.15,2013-05-21 19:23:00,
2013-05-21 15:25:00,86.6,72.0,29.93,NE,53,1.0,2.0,62,0.00,,,0.00,Wunderground v.1.15,2013-05-21 19:25:00,
2013-05-21 15:26:00,86.5,71.5,29.93,NE,54,1.0,2.0,61,0.00,,,0.00,Wunderground v.1.15,2013-05-21 19:26:00,
2013-05-21 15:27:00,86.4,70.9,29.93,NE,41,0.0,2.0,60,0.00,,,0.00,Wunderground v.1.15,2013-05-21 19:27:00,
2013-05-21 15:28:00,86.4,71.4,29.93,NE,41,0.0,2.0,61,0.00,,,0.00,Wunderground v.1.15,2013-05-21 19:28:00,
2013-05-21 15:30:00,86.7,71.6,29.93,SW,235,2.0,2.0,61,0.00,,,0.00,Wunderground v.1.15,2013-05-21 19:30:00,
2013-05-21 15:31:00,86.7,70.2,29.93,SW,217,1.0,2.0,58,0.00,,,0.00,Wunderground v.1.15,2013-05-21 19:31:00,
2013-05-21 15:32:00,86.8,71.7,29.93,SE,128,1.0,2.0,61,0.00,,,0.00,Wunderground v.1.15,2013-05-21 19:32:00,
2013-05-21 15:33:00,86.9,71.8,29.93,SE,128,1.0,2.0,61,0.00,,,0.00,Wunderground v.1.15,2013-05-21 19:33:00,
2013-05-21 15:35:00,87.1,71.5,29.93,North,1,2.0,2.0,60,0.00,,,0.00,Wunderground v.1.15,2013-05-21 19:35:00,
2013-05-21 15:36:00,87.2,72.6,29.93,NE,37,1.0,2.0,62,0.00,,,0.00,Wunderground v.1.15,2013-05-21 19:36:00,
2013-05-21 15:37:00,87.3,71.7,29.93,NE,37,0.0,2.0,60,0.00,,,0.00,Wunderground v.1.15,2013-05-21 19:37:00,
2013-05-21 15:38:00,87.3,71.7,29.93,NE,37,0.0,2.0,60,0.00,,,0.00,Wunderground v.1.15,2013-05-21 19:38:00,
2013-05-21 15:39:00,87.3,71.2,29.93,NE,37,0.0,2.0,59,0.00,,,0.00,Wunderground v.1.15,2013-05-21 19:39:00,
2013-05-21 15:40:00,87.6,73.0,29.93,NE,36,0.0,1.0,62,0.00,,,0.00,Wunderground v.1.15,2013-05-21 19:40:00,
2013-05-21 15:41:00,87.6,71.0,29.93,SW,217,2.0,2.0,58,0.00,,,0.00,Wunderground v.1.15,2013-05-21 19:41:00,
2013-05-21 15:42:00,87.6,71.5,29.93,SE,134,1.0,2.0,59,0.00,,,0.00,Wunderground v.1.15,2013-05-21 19:42:00,
2013-05-21 15:43:00,87.6,72.0,29.93,SE,134,0.0,2.0,60,0.00,,,0.00,Wunderground v.1.15,2013-05-21 19:43:00,
2013-05-21 15:44:00,87.6,71.0,29.93,WSW,255,1.0,2.0,58,0.00,,,0.00,Wunderground v.1.15,2013-05-21 19:44:00,
2013-05-21 15:46:00,87.4,71.3,29.93,West,261,0.0,2.0,59,0.00,,,0.00,Wunderground v.1.15,2013-05-21 19:46:00,
2013-05-21 15:47:00,87.2,71.6,29.93,West,263,0.0,2.0,60,0.00,,,0.00,Wunderground v.1.15,2013-05-21 19:47:00,
2013-05-21 15:48:00,87.0,72.4,29.93,West,280,1.0,2.0,62,0.00,,,0.00,Wunderground v.1.15,2013-05-21 19:48:00,
2013-05-21 15:49:00,86.8,70.8,29.93,West,280,1.0,2.0,59,0.00,,,0.00,Wunderground v.1.15,2013-05-21 19:49:00,
2013-05-21 15:51:00,86.5,70.5,29.93,WNW,295,0.0,1.0,59,0.00,,,0.00,Wunderground v.1.15,2013-05-21 19:51:00,
2013-05-21 15:52:00,86.4,71.8,29.92,WNW,295,0.0,1.0,62,0.00,,,0.00,Wunderground v.1.15,2013-05-21 19:52:00,
2013-05-21 15:53:00,86.2,71.6,29.92,West,264,0.0,1.0,62,0.00,,,0.00,Wunderground v.1.15,2013-05-21 19:53:00,
2013-05-21 15:54:00,86.1,71.6,29.92,West,264,0.0,1.0,62,0.00,,,0.00,Wunderground v.1.15,2013-05-21 19:54:00,
2013-05-21 15:56:00,85.9,72.3,29.92,West,278,0.0,1.0,64,0.00,,,0.00,Wunderground v.1.15,2013-05-21 19:56:00,
2013-05-21 15:57:00,85.8,71.3,29.92,NW,322,1.0,2.0,62,0.00,,,0.00,Wunderground v.1.15,2013-05-21 19:57:00,
2013-05-21 15:59:00,85.7,70.7,29.92,NW,322,0.0,2.0,61,0.00,,,0.00,Wunderground v.1.15,2013-05-21 19:59:00,
2013-05-21 16:01:00,85.6,71.1,29.92,NW,321,0.0,0.0,62,0.00,,,0.00,Wunderground v.1.15,2013-05-21 20:01:00,
2013-05-21 16:03:00,85.6,71.1,29.92,NW,322,1.0,1.0,62,0.00,,,0.00,Wunderground v.1.15,2013-05-21 20:03:00,
2013-05-21 16:04:00,85.5,70.0,29.91,South,175,0.0,3.0,60,0.00,,,0.00,Wunderground v.1.15,2013-05-21 20:04:00,
2013-05-21 16:06:00,85.3,69.8,29.91,SW,236,0.0,3.0,60,0.00,,,0.00,Wunderground v.1.15,2013-05-21 20:06:00,
2013-05-21 16:08:00,85.1,69.7,29.91,West,259,0.0,3.0,60,0.00,,,0.00,Wunderground v.1.15,2013-05-21 20:08:00,
2013-05-21 16:09:00,84.9,70.9,29.91,West,259,0.0,0.0,63,0.00,,,0.00,Wunderground v.1.15,2013-05-21 20:09:00,
2013-05-21 16:10:00,84.8,69.9,29.91,West,259,0.0,0.0,61,0.00,,,0.00,Wunderground v.1.15,2013-05-21 20:10:00,
2013-05-21 16:12:00,84.7,69.3,29.91,West,259,0.0,0.0,60,0.00,,,0.00,Wunderground v.1.15,2013-05-21 20:12:00,
2013-05-21 16:13:00,84.6,69.2,29.91,West,259,0.0,0.0,60,0.00,,,0.00,Wunderground v.1.15,2013-05-21 20:13:00,
2013-05-21 16:15:00,84.6,70.1,29.91,SE,133,1.0,1.0,62,0.00,,,0.00,Wunderground v.1.15,2013-05-21 20:15:00,
2013-05-21 16:17:00,84.6,70.6,29.91,SE,133,0.0,1.0,63,0.00,,,0.00,Wunderground v.1.15,2013-05-21 20:17:00,
2013-05-21 16:18:00,84.6,71.1,29.91,SE,132,0.0,1.0,64,0.00,,,0.00,Wunderground v.1.15,2013-05-21 20:18:00,
2013-05-21 16:19:00,84.6,71.5,29.91,WSW,257,2.0,2.0,65,0.00,,,0.00,Wunderground v.1.15,2013-05-21 20:19:00,
2013-05-21 16:20:00,84.6,71.5,29.91,WSW,248,0.0,1.0,65,0.00,,,0.00,Wunderground v.1.15,2013-05-21 20:20:00,
2013-05-21 16:22:00,84.7,72.1,29.91,SSE,153,0.0,4.0,66,0.00,,,0.00,Wunderground v.1.15,2013-05-21 20:22:00,
2013-05-21 16:23:00,84.8,72.2,29.91,SSW,200,0.0,4.0,66,0.00,,,0.00,Wunderground v.1.15,2013-05-21 20:23:00,
2013-05-21 16:24:00,84.8,72.2,29.91,SSW,200,0.0,4.0,66,0.00,,,0.00,Wunderground v.1.15,2013-05-21 20:24:00,
2013-05-21 16:25:00,84.9,72.3,29.92,SW,215,1.0,4.0,66,0.00,,,0.00,Wunderground v.1.15,2013-05-21 20:25:00,
2013-05-21 16:26:00,84.9,71.8,29.92,WNW,287,1.0,4.0,65,0.00,,,0.00,Wunderground v.1.15,2013-05-21 20:26:00,
2013-05-21 16:27:00,85.0,72.4,29.92,SSE,165,0.0,4.0,66,0.00,,,0.00,Wunderground v.1.15,2013-05-21 20:27:00,
2013-05-21 16:28:00,85.0,72.4,29.92,SSE,165,0.0,4.0,66,0.00,,,0.00,Wunderground v.1.15,2013-05-21 20:28:00,
2013-05-21 16:29:00,85.1,72.9,29.92,SSE,165,0.0,4.0,67,0.00,,,0.00,Wunderground v.1.15,2013-05-21 20:29:00,
2013-05-21 16:30:00,85.1,72.0,29.92,NW,312,0.0,2.0,65,0.00,,,0.00,Wunderground v.1.15,2013-05-21 20:30:00,
2013-05-21 16:31:00,85.1,72.5,29.92,NW,309,0.0,2.0,66,0.00,,,0.00,Wunderground v.1.15,2013-05-21 20:31:00,
2013-05-21 16:32:00,85.0,71.9,29.92,West,267,2.0,2.0,65,0.00,,,0.00,Wunderground v.1.15,2013-05-21 20:32:00,
2013-05-21 16:34:00,84.9,71.8,29.92,SSW,205,0.0,3.0,65,0.00,,,0.00,Wunderground v.1.15,2013-05-21 20:34:00,
2013-05-21 16:35:00,84.8,72.6,29.92,SE,141,2.0,3.0,67,0.00,,,0.00,Wunderground v.1.15,2013-05-21 20:35:00,
2013-05-21 16:36:00,84.8,72.6,29.92,SW,219,1.0,3.0,67,0.00,,,0.00,Wunderground v.1.15,2013-05-21 20:36:00,
2013-05-21 16:38:00,84.7,72.5,29.92,SW,229,1.0,3.0,67,0.00,,,0.00,Wunderground v.1.15,2013-05-21 20:38:00,
2013-05-21 16:39:00,84.6,72.4,29.92,SW,229,2.0,3.0,67,0.00,,,0.00,Wunderground v.1.15,2013-05-21 20:39:00,
2013-05-21 16:40:00,84.5,72.8,29.92,West,273,3.0,5.0,68,0.00,,,0.00,Wunderground v.1.15,2013-05-21 20:40:00,
2013-05-21 16:41:00,84.4,72.2,29.92,NNW,336,0.0,5.0,67,0.00,,,0.00,Wunderground v.1.15,2013-05-21 20:41:00,
2013-05-21 16:43:00,84.3,72.1,29.92,NNW,336,0.0,5.0,67,0.00,,,0.00,Wunderground v.1.15,2013-05-21 20:43:00,
2013-05-21 16:44:00,84.1,72.4,29.92,WNW,287,1.0,5.0,68,0.00,,,0.00,Wunderground v.1.15,2013-05-21 20:44:00,
2013-05-21 16:45:00,84.1,72.0,29.92,NNW,328,1.0,5.0,67,0.00,,,0.00,Wunderground v.1.15,2013-05-21 20:45:00,
2013-05-21 16:46:00,84.1,72.8,29.92,NNE,30,0.0,5.0,69,0.00,,,0.00,Wunderground v.1.15,2013-05-21 20:46:00,
2013-05-21 16:48:00,84.0,72.3,29.92,South,172,1.0,5.0,68,0.00,,,0.00,Wunderground v.1.15,2013-05-21 20:48:00,
2013-05-21 16:49:00,83.7,72.0,29.92,SSW,211,2.0,6.0,68,0.00,,,0.00,Wunderground v.1.15,2013-05-21 20:49:00,
2013-05-21 16:50:00,83.6,71.5,29.92,SW,218,4.0,4.0,67,0.00,,,0.00,Wunderground v.1.15,2013-05-21 20:50:00,
2013-05-21 16:52:00,83.5,72.3,29.92,SW,225,0.0,4.0,69,0.00,,,0.00,Wunderground v.1.15,2013-05-21 20:52:00,
2013-05-21 16:53:00,83.5,72.3,29.92,South,186,0.0,4.0,69,0.00,,,0.00,Wunderground v.1.15,2013-05-21 20:53:00,
2013-05-21 16:55:00,83.4,72.2,29.92,SW,222,2.0,4.0,69,0.00,,,0.00,Wunderground v.1.15,2013-05-21 20:55:00,
2013-05-21 16:56:00,83.4,72.2,29.92,NE,46,1.0,4.0,69,0.00,,,0.00,Wunderground v.1.15,2013-05-21 20:56:00,
2013-05-21 16:57:00,83.3,72.1,29.92,WSW,253,0.0,4.0,69,0.00,,,0.00,Wunderground v.1.15,2013-05-21 20:57:00,
2013-05-21 16:58:00,83.3,71.6,29.91,SSW,206,0.0,4.0,68,0.00,,,0.00,Wunderground v.1.15,2013-05-21 20:58:00,
2013-05-21 17:00:00,83.3,72.1,29.91,SSW,205,0.0,1.0,69,0.00,,,0.00,Wunderground v.1.15,2013-05-21 21:00:00,
2013-05-21 17:01:00,83.3,72.1,29.92,SSW,205,0.0,1.0,69,0.00,,,0.00,Wunderground v.1.15,2013-05-21 21:01:00,
2013-05-21 17:02:00,83.3,72.1,29.92,SSW,205,0.0,1.0,69,0.00,,,0.00,Wunderground v.1.15,2013-05-21 21:02:00,
2013-05-21 17:04:00,83.4,72.6,29.92,SSW,205,0.0,1.0,70,0.00,,,0.00,Wunderground v.1.15,2013-05-21 21:04:00,
2013-05-21 17:05:00,83.5,72.7,29.92,ENE,75,2.0,2.0,70,0.00,,,0.00,Wunderground v.1.15,2013-05-21 21:05:00,
2013-05-21 17:06:00,83.5,72.7,29.92,East,93,0.0,2.0,70,0.00,,,0.00,Wunderground v.1.15,2013-05-21 21:06:00,
2013-05-21 17:07:00,83.4,72.2,29.92,SW,228,2.0,3.0,69,0.00,,,0.00,Wunderground v.1.15,2013-05-21 21:07:00,
2013-05-21 17:09:00,83.4,72.2,29.92,SSW,204,2.0,5.0,69,0.00,,,0.00,Wunderground v.1.15,2013-05-21 21:09:00,
2013-05-21 17:10:00,83.4,72.2,29.92,SW,235,8.0,8.0,69,0.00,,,0.00,Wunderground v.1.15,2013-05-21 21:10:00,
2013-05-21 17:11:00,83.3,71.2,29.92,West,263,3.0,8.0,67,0.00,,,0.00,Wunderground v.1.15,2013-05-21 21:11:00,
2013-05-21 17:12:00,83.2,71.1,29.92,NW,318,4.0,8.0,67,0.00,,,0.00,Wunderground v.1.15,2013-05-21 21:12:00,
2013-05-21 17:14:00,83.1,71.4,29.92,SW,214,1.0,8.0,68,0.00,,,0.00,Wunderground v.1.15,2013-05-21 21:14:00,
2013-05-21 17:15:00,83.1,71.4,29.92,West,267,1.0,8.0,68,0.00,,,0.00,Wunderground v.1.15,2013-05-21 21:15:00,
2013-05-21 17:16:00,83.0,71.8,29.92,SSW,206,3.0,8.0,69,0.00,,,0.00,Wunderground v.1.15,2013-05-21 21:16:00,
2013-05-21 17:17:00,83.0,71.3,29.92,NW,309,0.0,8.0,68,0.00,,,0.00,Wunderground v.1.15,2013-05-21 21:17:00,
2013-05-21 17:19:00,83.0,71.3,29.92,South,184,1.0,8.0,68,0.00,,,0.00,Wunderground v.1.15,2013-05-21 21:19:00,
2013-05-21 17:20:00,82.9,71.3,29.92,SW,224,1.0,2.0,68,0.00,,,0.00,Wunderground v.1.15,2013-05-21 21:20:00,
2013-05-21 17:21:00,82.9,70.8,29.92,SW,225,0.0,2.0,67,0.00,,,0.00,Wunderground v.1.15,2013-05-21 21:21:00,
2013-05-21 17:22:00,82.9,71.3,29.91,South,186,2.0,2.0,68,0.00,,,0.00,Wunderground v.1.15,2013-05-21 21:22:00,
2013-05-21 17:24:00,82.8,70.7,29.91,West,264,1.0,4.0,67,0.00,,,0.00,Wunderground v.1.15,2013-05-21 21:24:00,
2013-05-21 17:25:00,82.8,71.2,29.91,NW,324,0.0,4.0,68,0.00,,,0.00,Wunderground v.1.15,2013-05-21 21:25:00,
2013-05-21 17:26:00,82.8,71.6,29.91,NE,56,0.0,4.0,69,0.00,,,0.00,Wunderground v.1.15,2013-05-21 21:26:00,
2013-05-21 17:28:00,82.9,71.3,29.91,SSE,167,1.0,4.0,68,0.00,,,0.00,Wunderground v.1.15,2013-05-21 21:28:00,
2013-05-21 17:29:00,82.8,71.2,29.91,West,278,0.0,4.0,68,0.00,,,0.00,Wunderground v.1.15,2013-05-21 21:29:00,
2013-05-21 17:30:00,82.9,71.3,29.91,West,266,1.0,2.0,68,0.00,,,0.00,Wunderground v.1.15,2013-05-21 21:30:00,
2013-05-21 17:31:00,82.9,71.3,29.91,SW,236,1.0,2.0,68,0.00,,,0.00,Wunderground v.1.15,2013-05-21 21:31:00,
2013-05-21 17:33:00,82.9,71.7,29.91,SSE,148,0.0,2.0,69,0.00,,,0.00,Wunderground v.1.15,2013-05-21 21:33:00,
2013-05-21 17:34:00,82.9,71.3,29.91,SW,228,2.0,3.0,68,0.00,,,0.00,Wunderground v.1.15,2013-05-21 21:34:00,
2013-05-21 17:36:00,82.9,70.8,29.91,SW,226,2.0,5.0,67,0.00,,,0.00,Wunderground v.1.15,2013-05-21 21:36:00,
2013-05-21 17:38:00,82.8,71.6,29.91,South,183,0.0,5.0,69,0.00,,,0.00,Wunderground v.1.15,2013-05-21 21:38:00,
2013-05-21 17:40:00,82.8,71.2,29.92,WNW,285,1.0,1.0,68,0.00,,,0.00,Wunderground v.1.15,2013-05-21 21:40:00,
2013-05-21 17:41:00,82.8,71.6,29.92,SSW,210,0.0,1.0,69,0.00,,,0.00,Wunderground v.1.15,2013-05-21 21:41:00,
2013-05-21 17:42:00,82.7,71.1,29.92,South,181,0.0,1.0,68,0.00,,,0.00,Wunderground v.1.15,2013-05-21 21:42:00,
2013-05-21 17:43:00,82.7,70.2,29.92,South,181,0.0,2.0,66,0.00,,,0.00,Wunderground v.1.15,2013-05-21 21:43:00,
2013-05-21 17:44:00,82.7,70.2,29.92,SW,236,7.0,7.0,66,0.00,,,0.00,Wunderground v.1.15,2013-05-21 21:44:00,
2013-05-21 17:45:00,82.4,68.5,29.92,SW,218,1.0,10.0,63,0.00,,,0.00,Wunderground v.1.15,2013-05-21 21:45:00,
2013-05-21 17:46:00,82.2,68.8,29.92,SW,215,1.0,10.0,64,0.00,,,0.00,Wunderground v.1.15,2013-05-21 21:46:00,
2013-05-21 17:47:00,82.1,68.7,29.92,SW,215,2.0,10.0,64,0.00,,,0.00,Wunderground v.1.15,2013-05-21 21:47:00,
2013-05-21 17:48:00,81.9,68.5,29.92,SW,221,1.0,10.0,64,0.00,,,0.00,Wunderground v.1.15,2013-05-21 21:48:00,
2013-05-21 17:49:00,81.8,68.4,29.92,SW,221,1.0,10.0,64,0.00,,,0.00,Wunderground v.1.15,2013-05-21 21:49:00,
2013-05-21 17:50:00,81.6,67.3,29.92,SW,228,4.0,7.0,62,0.00,,,0.00,Wunderground v.1.15,2013-05-21 21:50:00,
2013-05-21 17:52:00,81.2,66.5,29.92,SW,232,4.0,8.0,61,0.00,,,0.00,Wunderground v.1.15,2013-05-21 21:52:00,
2013-05-21 17:53:00,80.8,66.6,29.92,SW,229,1.0,8.0,62,0.00,,,0.00,Wunderground v.1.15,2013-05-21 21:53:00,
2013-05-21 17:54:00,80.6,66.4,29.92,WSW,255,2.0,8.0,62,0.00,,,0.00,Wunderground v.1.15,2013-05-21 21:54:00,
2013-05-21 17:55:00,80.4,66.2,29.92,SW,221,2.0,8.0,62,0.00,,,0.00,Wunderground v.1.15,2013-05-21 21:55:00,
2013-05-21 17:57:00,80.3,66.6,29.91,SSW,210,1.0,8.0,63,0.00,,,0.00,Wunderground v.1.15,2013-05-21 21:57:00,
2013-05-21 17:58:00,80.3,66.1,29.91,NW,312,2.0,8.0,62,0.00,,,0.00,Wunderground v.1.15,2013-05-21 21:58:00,
2013-05-21 17:59:00,80.2,66.5,29.91,WSW,258,0.0,8.0,63,0.00,,,0.00,Wunderground v.1.15,2013-05-21 21:59:00,
2013-05-21 18:01:00,80.2,67.4,29.91,WSW,257,0.0,2.0,65,0.00,,,0.00,Wunderground v.1.15,2013-05-21 22:01:00,
2013-05-21 18:02:00,80.2,67.4,29.91,WNW,287,0.0,2.0,65,0.00,,,0.00,Wunderground v.1.15,2013-05-21 22:02:00,
2013-05-21 18:03:00,80.2,67.4,29.91,South,190,0.0,2.0,65,0.00,,,0.00,Wunderground v.1.15,2013-05-21 22:03:00,
2013-05-21 18:05:00,80.2,67.4,29.91,SW,222,1.0,2.0,65,0.00,,,0.00,Wunderground v.1.15,2013-05-21 22:05:00,
2013-05-21 18:06:00,80.2,67.4,29.91,WNW,302,1.0,2.0,65,0.00,,,0.00,Wunderground v.1.15,2013-05-21 22:06:00,
2013-05-21 18:07:00,80.1,66.8,29.91,WNW,302,0.0,2.0,64,0.00,,,0.00,Wunderground v.1.15,2013-05-21 22:07:00,
2013-05-21 18:08:00,80.1,66.8,29.91,WNW,302,0.0,2.0,64,0.00,,,0.00,Wunderground v.1.15,2013-05-21 22:08:00,
2013-05-21 18:10:00,80.0,66.7,29.91,SW,235,1.0,1.0,64,0.00,,,0.00,Wunderground v.1.15,2013-05-21 22:10:00,
2013-05-21 18:11:00,80.0,66.7,29.91,SW,235,1.0,1.0,64,0.00,,,0.00,Wunderground v.1.15,2013-05-21 22:11:00,
2013-05-21 18:12:00,79.9,66.2,29.91,SSW,194,2.0,3.0,63,0.00,,,0.00,Wunderground v.1.15,2013-05-21 22:12:00,
2013-05-21 18:13:00,79.9,66.2,29.91,SE,138,1.0,3.0,63,0.00,,,0.00,Wunderground v.1.15,2013-05-21 22:13:00,
2013-05-21 18:14:00,79.8,65.6,29.91,SSE,160,1.0,3.0,62,0.00,,,0.00,Wunderground v.1.15,2013-05-21 22:14:00,
2013-05-21 18:15:00,79.8,65.2,29.91,WSW,242,4.0,4.0,61,0.00,,,0.00,Wunderground v.1.15,2013-05-21 22:15:00,
2013-05-21 18:16:00,79.7,65.1,29.91,SSW,198,1.0,4.0,61,0.00,,,0.00,Wunderground v.1.15,2013-05-21 22:16:00,
2013-05-21 18:17:00,79.7,66.9,29.91,SSW,207,0.0,4.0,65,0.00,,,0.00,Wunderground v.1.15,2013-05-21 22:17:00,
2013-05-21 18:18:00,79.7,66.9,29.91,SW,235,2.0,4.0,65,0.00,,,0.00,Wunderground v.1.15,2013-05-21 22:18:00,
2013-05-21 18:19:00,79.7,66.9,29.91,West,260,0.0,4.0,65,0.00,,,0.00,Wunderground v.1.15,2013-05-21 22:19:00,
2013-05-21 18:21:00,79.6,67.2,29.91,West,260,1.0,1.0,66,0.00,,,0.00,Wunderground v.1.15,2013-05-21 22:21:00,
2013-05-21 18:23:00,79.5,66.3,29.91,South,191,0.0,2.0,64,0.00,,,0.00,Wunderground v.1.15,2013-05-21 22:23:00,
2013-05-21 18:25:00,79.5,65.8,29.92,South,191,0.0,2.0,63,0.00,,,0.00,Wunderground v.1.15,2013-05-21 22:25:00,
2013-05-21 18:26:00,79.6,65.9,29.92,SSW,192,0.0,2.0,63,0.00,,,0.00,Wunderground v.1.15,2013-05-21 22:26:00,
2013-05-21 18:28:00,79.7,66.4,29.92,South,188,0.0,2.0,64,0.00,,,0.00,Wunderground v.1.15,2013-05-21 22:28:00,
2013-05-21 18:30:00,79.7,66.0,29.92,SW,215,0.0,1.0,63,0.00,,,0.00,Wunderground v.1.15,2013-05-21 22:30:00,
2013-05-21 18:31:00,79.7,66.4,29.92,SW,215,0.0,1.0,64,0.00,,,0.00,Wunderground v.1.15,2013-05-21 22:31:00,
2013-05-21 18:32:00,79.7,66.4,29.92,SSW,204,0.0,1.0,64,0.00,,,0.00,Wunderground v.1.15,2013-05-21 22:32:00,
2013-05-21 18:33:00,79.7,66.4,29.92,SSW,204,0.0,1.0,64,0.00,,,0.00,Wunderground v.1.15,2013-05-21 22:33:00,
2013-05-21 18:36:00,79.6,66.8,29.91,SE,129,0.0,1.0,65,0.00,,,0.00,Wunderground v.1.15,2013-05-21 22:36:00,
2013-05-21 18:37:00,79.6,67.2,29.91,WSW,243,5.0,5.0,66,0.00,,,0.00,Wunderground v.1.15,2013-05-21 22:37:00,
2013-05-21 18:38:00,79.5,66.3,29.91,SSW,194,0.0,5.0,64,0.00,,,0.00,Wunderground v.1.15,2013-05-21 22:38:00,
2013-05-21 18:39:00,79.5,66.7,29.91,SSW,193,0.0,5.0,65,0.00,,,0.00,Wunderground v.1.15,2013-05-21 22:39:00,
2013-05-21 18:41:00,79.4,67.0,29.91,SSW,193,0.0,1.0,66,0.00,,,0.00,Wunderground v.1.15,2013-05-21 22:41:00,
2013-05-21 18:42:00,79.4,66.6,29.91,SSW,197,0.0,1.0,65,0.00,,,0.00,Wunderground v.1.15,2013-05-21 22:42:00,
2013-05-21 18:44:00,79.3,67.0,29.91,WSW,252,2.0,4.0,66,0.00,,,0.00,Wunderground v.1.15,2013-05-21 22:44:00,
2013-05-21 18:46:00,79.2,66.9,29.91,East,87,0.0,4.0,66,0.00,,,0.00,Wunderground v.1.15,2013-05-21 22:46:00,
2013-05-21 18:47:00,79.1,66.8,29.91,East,88,0.0,4.0,66,0.00,,,0.00,Wunderground v.1.15,2013-05-21 22:47:00,
2013-05-21 18:49:00,79.1,67.2,29.90,ENE,72,0.0,4.0,67,0.00,,,0.00,Wunderground v.1.15,2013-05-21 22:49:00,
2013-05-21 18:51:00,79.0,66.7,29.90,WSW,253,0.0,1.0,66,0.00,,,0.00,Wunderground v.1.15,2013-05-21 22:51:00,
2013-05-21 18:52:00,79.0,66.7,29.90,WSW,253,0.0,1.0,66,0.00,,,0.00,Wunderground v.1.15,2013-05-21 22:52:00,
2013-05-21 18:53:00,79.1,66.8,29.90,WSW,253,0.0,1.0,66,0.00,,,0.00,Wunderground v.1.15,2013-05-21 22:53:00,
2013-05-21 18:54:00,79.1,66.8,29.90,WSW,253,0.0,1.0,66,0.00,,,0.00,Wunderground v.1.15,2013-05-21 22:54:00,
2013-05-21 18:56:00,79.0,67.1,29.90,ESE,108,1.0,2.0,67,0.00,,,0.00,Wunderground v.1.15,2013-05-21 22:56:00,
2013-05-21 18:58:00,78.9,67.0,29.90,ESE,108,0.0,2.0,67,0.00,,,0.00,Wunderground v.1.15,2013-05-21 22:58:00,
2013-05-21 18:59:00,78.9,67.0,29.90,ESE,108,0.0,2.0,67,0.00,,,0.00,Wunderground v.1.15,2013-05-21 22:59:00,
2013-05-21 19:00:00,78.8,66.9,29.90,SW,215,2.0,2.0,67,0.00,,,0.00,Wunderground v.1.15,2013-05-21 23:00:00,
2013-05-21 19:01:00,78.8,67.3,29.90,SE,125,0.0,2.0,68,0.00,,,0.00,Wunderground v.1.15,2013-05-21 23:01:00,
2013-05-21 19:03:00,78.8,67.3,29.91,SE,125,1.0,2.0,68,0.00,,,0.00,Wunderground v.1.15,2013-05-21 23:03:00,
2013-05-21 19:04:00,78.7,67.2,29.90,SE,125,0.0,2.0,68,0.00,,,0.00,Wunderground v.1.15,2013-05-21 23:04:00,
2013-05-21 19:05:00,78.6,67.2,29.91,SE,124,0.0,2.0,68,0.00,,,0.00,Wunderground v.1.15,2013-05-21 23:05:00,
2013-05-21 19:06:00,78.6,67.2,29.91,WSW,237,1.0,2.0,68,0.00,,,0.00,Wunderground v.1.15,2013-05-21 23:06:00,
2013-05-21 19:08:00,78.5,67.1,29.91,WSW,237,1.0,2.0,68,0.00,,,0.00,Wunderground v.1.15,2013-05-21 23:08:00,
2013-05-21 19:09:00,78.4,67.0,29.91,WSW,238,0.0,2.0,68,0.00,,,0.00,Wunderground v.1.15,2013-05-21 23:09:00,
2013-05-21 19:10:00,78.3,66.9,29.91,SSW,203,1.0,3.0,68,0.00,,,0.00,Wunderground v.1.15,2013-05-21 23:10:00,
2013-05-21 19:11:00,78.3,66.9,29.91,SSW,203,0.0,3.0,68,0.00,,,0.00,Wunderground v.1.15,2013-05-21 23:11:00,
2013-05-21 19:12:00,78.2,67.2,29.91,SSW,203,0.0,3.0,69,0.00,,,0.00,Wunderground v.1.15,2013-05-21 23:12:00,
2013-05-21 19:13:00,78.2,67.2,29.91,SSW,200,0.0,3.0,69,0.00,,,0.00,Wunderground v.1.15,2013-05-21 23:13:00,
2013-05-21 19:15:00,78.1,67.1,29.91,SSW,200,0.0,3.0,69,0.00,,,0.00,Wunderground v.1.15,2013-05-21 23:15:00,
2013-05-21 19:17:00,78.1,67.1,29.91,SSW,200,0.0,3.0,69,0.00,,,0.00,Wunderground v.1.15,2013-05-21 23:17:00,
2013-05-21 19:19:00,78.1,67.5,29.91,SSW,210,0.0,3.0,70,0.00,,,0.00,Wunderground v.1.15,2013-05-21 23:19:00,
2013-05-21 19:20:00,78.1,67.5,29.91,SSW,210,0.0,0.0,70,0.00,,,0.00,Wunderground v.1.15,2013-05-21 23:20:00,
2013-05-21 19:21:00,78.0,67.0,29.91,SSW,210,0.0,1.0,69,0.00,,,0.00,Wunderground v.1.15,2013-05-21 23:21:00,
2013-05-21 19:22:00,78.0,67.0,29.91,SSW,210,0.0,1.0,69,0.00,,,0.00,Wunderground v.1.15,2013-05-21 23:22:00,
2013-05-21 19:24:00,78.0,67.4,29.91,SSW,210,0.0,1.0,70,0.00,,,0.00,Wunderground v.1.15,2013-05-21 23:24:00,
2013-05-21 19:25:00,78.0,67.4,29.92,SSW,210,0.0,1.0,70,0.00,,,0.00,Wunderground v.1.15,2013-05-21 23:25:00,
2013-05-21 19:26:00,77.9,67.3,29.92,SSW,210,0.0,1.0,70,0.00,,,0.00,Wunderground v.1.15,2013-05-21 23:26:00,
2013-05-21 19:27:00,77.9,67.7,29.92,SSW,210,0.0,1.0,71,0.00,,,0.00,Wunderground v.1.15,2013-05-21 23:27:00,
2013-05-21 19:29:00,77.8,67.2,29.92,SW,229,0.0,1.0,70,0.00,,,0.00,Wunderground v.1.15,2013-05-21 23:29:00,
2013-05-21 19:31:00,77.6,67.0,29.92,SW,229,0.0,0.0,70,0.00,,,0.00,Wunderground v.1.15,2013-05-21 23:31:00,
2013-05-21 19:32:00,77.5,66.9,29.92,SW,229,0.0,0.0,70,0.00,,,0.00,Wunderground v.1.15,2013-05-21 23:32:00,
2013-05-21 19:34:00,77.4,67.7,29.92,SW,229,0.0,0.0,72,0.00,,,0.00,Wunderground v.1.15,2013-05-21 23:34:00,
2013-05-21 19:36:00,77.2,67.9,29.92,SW,228,0.0,0.0,73,0.00,,,0.00,Wunderground v.1.15,2013-05-21 23:36:00,
2013-05-21 19:37:00,77.0,67.7,29.92,SW,229,0.0,0.0,73,0.00,,,0.00,Wunderground v.1.15,2013-05-21 23:37:00,
2013-05-21 19:38:00,77.0,68.1,29.92,SW,229,0.0,0.0,74,0.00,,,0.00,Wunderground v.1.15,2013-05-21 23:38:00,
2013-05-21 19:40:00,76.7,67.8,29.92,SW,229,0.0,0.0,74,0.00,,,0.00,Wunderground v.1.15,2013-05-21 23:40:00,
2013-05-21 19:41:00,76.6,68.1,29.92,SW,229,0.0,0.0,75,0.00,,,0.00,Wunderground v.1.15,2013-05-21 23:41:00,
2013-05-21 19:42:00,76.3,67.0,29.92,SW,229,0.0,0.0,73,0.00,,,0.00,Wunderground v.1.15,2013-05-21 23:42:00,
2013-05-21 19:43:00,76.2,67.3,29.92,SW,229,0.0,0.0,74,0.00,,,0.00,Wunderground v.1.15,2013-05-21 23:43:00,
2013-05-21 19:45:00,76.0,67.1,29.92,SW,229,0.0,0.0,74,0.00,,,0.00,Wunderground v.1.15,2013-05-21 23:45:00,
2013-05-21 19:46:00,75.9,66.6,29.92,SW,229,0.0,0.0,73,0.00,,,0.00,Wunderground v.1.15,2013-05-21 23:46:00,
2013-05-21 19:47:00,75.7,66.8,29.92,SW,229,0.0,0.0,74,0.00,,,0.00,Wunderground v.1.15,2013-05-21 23:47:00,
2013-05-21 19:48:00,75.7,66.8,29.92,SW,228,0.0,0.0,74,0.00,,,0.00,Wunderground v.1.15,2013-05-21 23:48:00,
2013-05-21 19:50:00,75.6,67.5,29.92,SW,229,0.0,0.0,76,0.00,,,0.00,Wunderground v.1.15,2013-05-21 23:50:00,
2013-05-21 19:51:00,75.5,67.4,29.92,SW,229,0.0,0.0,76,0.00,,,0.00,Wunderground v.1.15,2013-05-21 23:51:00,
2013-05-21 19:52:00,75.4,67.3,29.92,SW,229,0.0,0.0,76,0.00,,,0.00,Wunderground v.1.15,2013-05-21 23:52:00,
2013-05-21 19:53:00,75.2,66.7,29.92,SW,229,0.0,0.0,75,0.00,,,0.00,Wunderground v.1.15,2013-05-21 23:53:00,
2013-05-21 19:55:00,75.0,66.9,29.92,SW,229,0.0,0.0,76,0.00,,,0.00,Wunderground v.1.15,2013-05-21 23:55:00,
2013-05-21 19:56:00,74.9,66.8,29.92,SW,230,0.0,0.0,76,0.00,,,0.00,Wunderground v.1.15,2013-05-21 23:56:00,
2013-05-21 19:57:00,74.8,66.7,29.92,SW,229,0.0,0.0,76,0.00,,,0.00,Wunderground v.1.15,2013-05-21 23:57:00,
2013-05-21 19:58:00,74.7,66.2,29.92,SW,229,0.0,0.0,75,0.00,,,0.00,Wunderground v.1.15,2013-05-21 23:58:00,
2013-05-21 20:00:00,74.5,66.4,29.92,SW,229,0.0,0.0,76,0.00,,,0.00,Wunderground v.1.15,2013-05-22 00:00:00,
2013-05-21 20:02:00,74.3,66.6,29.92,SW,229,0.0,0.0,77,0.00,,,0.00,Wunderground v.1.15,2013-05-22 00:02:00,
2013-05-21 20:03:00,74.2,66.5,29.92,SW,229,0.0,0.0,77,0.00,,,0.00,Wunderground v.1.15,2013-05-22 00:03:00,
2013-05-21 20:04:00,74.1,66.4,29.92,SW,229,0.0,0.0,77,0.00,,,0.00,Wunderground v.1.15,2013-05-22 00:04:00,
2013-05-21 20:05:00,73.9,66.2,29.92,SW,229,0.0,0.0,77,0.00,,,0.00,Wunderground v.1.15,2013-05-22 00:05:00,
2013-05-21 20:07:00,73.7,66.8,29.93,SW,229,0.0,0.0,79,0.00,,,0.00,Wunderground v.1.15,2013-05-22 00:07:00,
2013-05-21 20:08:00,73.6,66.3,29.93,SW,229,0.0,0.0,78,0.00,,,0.00,Wunderground v.1.15,2013-05-22 00:08:00,
2013-05-21 20:09:00,73.6,66.3,29.93,SW,229,0.0,0.0,78,0.00,,,0.00,Wunderground v.1.15,2013-05-22 00:09:00,
2013-05-21 20:10:00,73.4,66.1,29.93,SW,229,0.0,0.0,78,0.00,,,0.00,Wunderground v.1.15,2013-05-22 00:10:00,
2013-05-21 20:12:00,73.2,65.9,29.93,SW,229,0.0,0.0,78,0.00,,,0.00,Wunderground v.1.15,2013-05-22 00:12:00,
2013-05-21 20:13:00,73.1,65.8,29.93,SW,229,0.0,0.0,78,0.00,,,0.00,Wunderground v.1.15,2013-05-22 00:13:00,
2013-05-21 20:14:00,73.0,66.1,29.92,SW,229,0.0,0.0,79,0.00,,,0.00,Wunderground v.1.15,2013-05-22 00:14:00,
2013-05-21 20:16:00,72.9,66.7,29.92,SW,229,0.0,0.0,81,0.00,,,0.00,Wunderground v.1.15,2013-05-22 00:16:00,
2013-05-21 20:17:00,72.8,66.6,29.92,SW,229,0.0,0.0,81,0.00,,,0.00,Wunderground v.1.15,2013-05-22 00:17:00,
2013-05-21 20:18:00,72.7,66.2,29.93,SW,229,0.0,0.0,80,0.00,,,0.00,Wunderground v.1.15,2013-05-22 00:18:00,
2013-05-21 20:19:00,72.6,66.1,29.92,SW,229,0.0,0.0,80,0.00,,,0.00,Wunderground v.1.15,2013-05-22 00:19:00,
2013-05-21 20:21:00,72.4,65.5,29.92,SW,229,0.0,0.0,79,0.00,,,0.00,Wunderground v.1.15,2013-05-22 00:21:00,
2013-05-21 20:23:00,72.3,65.4,29.92,SW,228,0.0,0.0,79,0.00,,,0.00,Wunderground v.1.15,2013-05-22 00:23:00,
2013-05-21 20:24:00,72.2,65.7,29.92,SW,229,0.0,0.0,80,0.00,,,0.00,Wunderground v.1.15,2013-05-22 00:24:00,
2013-05-21 20:26:00,71.9,65.4,29.92,SW,229,0.0,0.0,80,0.00,,,0.00,Wunderground v.1.15,2013-05-22 00:26:00,
2013-05-21 20:28:00,71.8,65.3,29.92,SW,229,0.0,0.0,80,0.00,,,0.00,Wunderground v.1.15,2013-05-22 00:28:00,
2013-05-21 20:29:00,71.7,65.2,29.92,SW,229,0.0,0.0,80,0.00,,,0.00,Wunderground v.1.15,2013-05-22 00:29:00,
2013-05-21 20:31:00,71.5,65.7,29.92,SW,229,0.0,0.0,82,0.00,,,0.00,Wunderground v.1.15,2013-05-22 00:31:00,
2013-05-21 20:32:00,71.4,65.3,29.92,SW,229,0.0,0.0,81,0.00,,,0.00,Wunderground v.1.15,2013-05-22 00:32:00,
2013-05-21 20:34:00,71.3,65.2,29.92,SW,229,0.0,0.0,81,0.00,,,0.00,Wunderground v.1.15,2013-05-22 00:34:00,
2013-05-21 20:35:00,71.2,65.1,29.92,SW,229,0.0,0.0,81,0.00,,,0.00,Wunderground v.1.15,2013-05-22 00:35:00,
2013-05-21 20:37:00,71.0,64.9,29.92,SW,229,0.0,0.0,81,0.00,,,0.00,Wunderground v.1.15,2013-05-22 00:37:00,
2013-05-21 20:38:00,71.0,65.2,29.92,SW,229,0.0,0.0,82,0.00,,,0.00,Wunderground v.1.15,2013-05-22 00:38:00,
2013-05-21 20:39:00,70.9,65.1,29.92,SW,229,0.0,0.0,82,0.00,,,0.00,Wunderground v.1.15,2013-05-22 00:39:00,
2013-05-21 20:40:00,70.8,65.4,29.92,SW,229,0.0,0.0,83,0.00,,,0.00,Wunderground v.1.15,2013-05-22 00:40:00,
2013-05-21 20:42:00,70.7,65.6,29.92,SW,229,0.0,0.0,84,0.00,,,0.00,Wunderground v.1.15,2013-05-22 00:42:00,
2013-05-21 20:43:00,70.7,65.6,29.92,SW,229,0.0,0.0,84,0.00,,,0.00,Wunderground v.1.15,2013-05-22 00:43:00,
2013-05-21 20:44:00,70.6,65.9,29.92,SW,229,0.0,0.0,85,0.00,,,0.00,Wunderground v.1.15,2013-05-22 00:44:00,
2013-05-21 20:45:00,70.6,65.9,29.92,SW,229,0.0,0.0,85,0.00,,,0.00,Wunderground v.1.15,2013-05-22 00:45:00,
2013-05-21 20:47:00,70.4,65.3,29.92,SW,229,0.0,0.0,84,0.00,,,0.00,Wunderground v.1.15,2013-05-22 00:47:00,
2013-05-21 20:48:00,70.4,65.3,29.92,SW,229,0.0,0.0,84,0.00,,,0.00,Wunderground v.1.15,2013-05-22 00:48:00,
2013-05-21 20:49:00,70.3,65.2,29.92,SW,229,0.0,0.0,84,0.00,,,0.00,Wunderground v.1.15,2013-05-22 00:49:00,
2013-05-21 20:50:00,70.3,65.2,29.92,SW,229,0.0,0.0,84,0.00,,,0.00,Wunderground v.1.15,2013-05-22 00:50:00,
2013-05-21 20:53:00,70.1,65.0,29.92,SW,229,0.0,0.0,84,0.00,,,0.00,Wunderground v.1.15,2013-05-22 00:53:00,
2013-05-21 20:54:00,70.1,65.0,29.93,SW,229,0.0,0.0,84,0.00,,,0.00,Wunderground v.1.15,2013-05-22 00:54:00,
2013-05-21 20:55:00,70.1,65.0,29.93,SW,229,0.0,0.0,84,0.00,,,0.00,Wunderground v.1.15,2013-05-22 00:55:00,
2013-05-21 20:58:00,69.9,65.2,29.93,SW,229,0.0,0.0,85,0.00,,,0.00,Wunderground v.1.15,2013-05-22 00:58:00,
2013-05-21 20:59:00,69.9,65.2,29.93,SW,229,0.0,0.0,85,0.00,,,0.00,Wunderground v.1.15,2013-05-22 00:59:00,
2013-05-21 21:00:00,69.9,65.2,29.93,SW,229,0.0,0.0,85,0.00,,,0.00,Wunderground v.1.15,2013-05-22 01:00:00,
2013-05-21 21:01:00,69.9,65.2,29.93,SW,229,0.0,0.0,85,0.00,,,0.00,Wunderground v.1.15,2013-05-22 01:01:00,
2013-05-21 21:03:00,69.7,65.0,29.93,SW,229,0.0,0.0,85,0.00,,,0.00,Wunderground v.1.15,2013-05-22 01:03:00,
2013-05-21 21:04:00,69.7,65.0,29.93,SW,229,0.0,0.0,85,0.00,,,0.00,Wunderground v.1.15,2013-05-22 01:04:00,
2013-05-21 21:05:00,69.7,65.3,29.93,SW,229,0.0,0.0,86,0.00,,,0.00,Wunderground v.1.15,2013-05-22 01:05:00,
2013-05-21 21:06:00,69.6,65.2,29.93,SW,229,0.0,0.0,86,0.00,,,0.00,Wunderground v.1.15,2013-05-22 01:06:00,
2013-05-21 21:08:00,69.5,65.1,29.93,SW,229,0.0,0.0,86,0.00,,,0.00,Wunderground v.1.15,2013-05-22 01:08:00,
2013-05-21 21:09:00,69.5,65.1,29.93,SW,229,0.0,0.0,86,0.00,,,0.00,Wunderground v.1.15,2013-05-22 01:09:00,
2013-05-21 21:10:00,69.4,65.0,29.93,SW,229,0.0,0.0,86,0.00,,,0.00,Wunderground v.1.15,2013-05-22 01:10:00,
2013-05-21 21:11:00,69.3,64.9,29.93,SW,229,0.0,0.0,86,0.00,,,0.00,Wunderground v.1.15,2013-05-22 01:11:00,
2013-05-21 21:13:00,69.2,64.8,29.93,SW,229,0.0,0.0,86,0.00,,,0.00,Wunderground v.1.15,2013-05-22 01:13:00,
2013-05-21 21:14:00,69.2,64.8,29.93,SW,229,0.0,0.0,86,0.00,,,0.00,Wunderground v.1.15,2013-05-22 01:14:00,
2013-05-21 21:15:00,69.1,64.7,29.93,SW,229,0.0,0.0,86,0.00,,,0.00,Wunderground v.1.15,2013-05-22 01:15:00,
2013-05-21 21:16:00,69.1,64.7,29.93,SW,229,0.0,0.0,86,0.00,,,0.00,Wunderground v.1.15,2013-05-22 01:16:00,
2013-05-21 21:18:00,69.0,64.6,29.93,SW,229,0.0,0.0,86,0.00,,,0.00,Wunderground v.1.15,2013-05-22 01:18:00,
2013-05-21 21:20:00,68.9,64.9,29.93,SW,229,0.0,0.0,87,0.00,,,0.00,Wunderground v.1.15,2013-05-22 01:20:00,
2013-05-21 21:21:00,68.9,64.9,29.94,SW,229,0.0,0.0,87,0.00,,,0.00,Wunderground v.1.15,2013-05-22 01:21:00,
2013-05-21 21:23:00,68.8,65.1,29.94,SW,229,0.0,0.0,88,0.00,,,0.00,Wunderground v.1.15,2013-05-22 01:23:00,
2013-05-21 21:25:00,68.7,65.0,29.94,SW,229,0.0,0.0,88,0.00,,,0.00,Wunderground v.1.15,2013-05-22 01:25:00,
2013-05-21 21:26:00,68.7,65.0,29.94,SW,229,0.0,0.0,88,0.00,,,0.00,Wunderground v.1.15,2013-05-22 01:26:00,
2013-05-21 21:29:00,68.6,64.9,29.94,SW,229,0.0,0.0,88,0.00,,,0.00,Wunderground v.1.15,2013-05-22 01:29:00,
2013-05-21 21:30:00,68.5,65.1,29.94,SW,229,0.0,0.0,89,0.00,,,0.00,Wunderground v.1.15,2013-05-22 01:30:00,
2013-05-21 21:31:00,68.5,65.1,29.94,SW,229,0.0,0.0,89,0.00,,,0.00,Wunderground v.1.15,2013-05-22 01:31:00,
2013-05-21 21:34:00,68.3,64.9,29.94,SW,229,0.0,0.0,89,0.00,,,0.00,Wunderground v.1.15,2013-05-22 01:34:00,
2013-05-21 21:35:00,68.3,64.9,29.94,SW,229,0.0,0.0,89,0.00,,,0.00,Wunderground v.1.15,2013-05-22 01:35:00,
2013-05-21 21:36:00,68.3,64.9,29.94,SW,229,0.0,0.0,89,0.00,,,0.00,Wunderground v.1.15,2013-05-22 01:36:00,
2013-05-21 21:39:00,68.2,64.8,29.94,SW,229,0.0,0.0,89,0.00,,,0.00,Wunderground v.1.15,2013-05-22 01:39:00,
2013-05-21 21:41:00,68.1,64.7,29.94,SW,229,0.0,0.0,89,0.00,,,0.00,Wunderground v.1.15,2013-05-22 01:41:00,
2013-05-21 21:45:00,67.9,64.9,29.94,SW,229,0.0,0.0,90,0.00,,,0.00,Wunderground v.1.15,2013-05-22 01:45:00,
2013-05-21 21:46:00,67.8,64.8,29.94,SW,229,0.0,0.0,90,0.00,,,0.00,Wunderground v.1.15,2013-05-22 01:46:00,
2013-05-21 21:47:00,67.8,64.8,29.95,SW,229,0.0,0.0,90,0.00,,,0.00,Wunderground v.1.15,2013-05-22 01:47:00,
2013-05-21 21:50:00,67.9,65.2,29.95,SW,229,0.0,0.0,91,0.00,,,0.00,Wunderground v.1.15,2013-05-22 01:50:00,
2013-05-21 21:51:00,67.9,65.2,29.95,SW,229,0.0,0.0,91,0.00,,,0.00,Wunderground v.1.15,2013-05-22 01:51:00,
2013-05-21 21:52:00,67.9,65.2,29.95,SW,229,0.0,0.0,91,0.00,,,0.00,Wunderground v.1.15,2013-05-22 01:52:00,
2013-05-21 21:55:00,68.0,65.3,29.95,SW,229,0.0,0.0,91,0.00,,,0.00,Wunderground v.1.15,2013-05-22 01:55:00,
2013-05-21 21:56:00,68.0,65.3,29.95,SW,229,0.0,0.0,91,0.00,,,0.00,Wunderground v.1.15,2013-05-22 01:56:00,
2013-05-21 21:57:00,67.9,65.2,29.95,SW,229,0.0,0.0,91,0.00,,,0.00,Wunderground v.1.15,2013-05-22 01:57:00,
2013-05-21 21:58:00,67.9,65.2,29.95,SW,229,0.0,0.0,91,0.00,,,0.00,Wunderground v.1.15,2013-05-22 01:58:00,
2013-05-21 22:00:00,67.8,64.8,29.94,SW,229,0.0,0.0,90,0.00,,,0.00,Wunderground v.1.15,2013-05-22 02:00:00,
2013-05-21 22:01:00,67.8,64.8,29.95,SW,229,0.0,0.0,90,0.00,,,0.00,Wunderground v.1.15,2013-05-22 02:01:00,
2013-05-21 22:02:00,67.7,64.7,29.95,SW,229,0.0,0.0,90,0.00,,,0.00,Wunderground v.1.15,2013-05-22 02:02:00,
2013-05-21 22:03:00,67.7,64.7,29.94,SW,229,0.0,0.0,90,0.00,,,0.00,Wunderground v.1.15,2013-05-22 02:03:00,
2013-05-21 22:05:00,67.5,64.5,29.95,SW,229,0.0,0.0,90,0.00,,,0.00,Wunderground v.1.15,2013-05-22 02:05:00,
2013-05-21 22:06:00,67.5,64.5,29.94,SW,229,0.0,0.0,90,0.00,,,0.00,Wunderground v.1.15,2013-05-22 02:06:00,
2013-05-21 22:07:00,67.5,64.5,29.94,SW,229,0.0,0.0,90,0.00,,,0.00,Wunderground v.1.15,2013-05-22 02:07:00,
2013-05-21 22:08:00,67.4,64.4,29.94,SW,229,0.0,0.0,90,0.00,,,0.00,Wunderground v.1.15,2013-05-22 02:08:00,
2013-05-21 22:10:00,67.4,64.7,29.94,SW,229,0.0,0.0,91,0.00,,,0.00,Wunderground v.1.15,2013-05-22 02:10:00,
2013-05-21 22:12:00,67.3,64.6,29.95,SW,229,0.0,0.0,91,0.00,,,0.00,Wunderground v.1.15,2013-05-22 02:12:00,
2013-05-21 22:13:00,67.3,64.6,29.95,SW,229,0.0,0.0,91,0.00,,,0.00,Wunderground v.1.15,2013-05-22 02:13:00,
2013-05-21 22:15:00,67.1,64.4,29.95,SW,229,0.0,0.0,91,0.00,,,0.00,Wunderground v.1.15,2013-05-22 02:15:00,
2013-05-21 22:17:00,67.1,64.7,29.95,SW,229,0.0,0.0,92,0.00,,,0.00,Wunderground v.1.15,2013-05-22 02:17:00,
2013-05-21 22:18:00,67.0,64.6,29.95,SW,229,0.0,0.0,92,0.00,,,0.00,Wunderground v.1.15,2013-05-22 02:18:00,
2013-05-21 22:20:00,66.9,64.5,29.95,SW,229,0.0,0.0,92,0.00,,,0.00,Wunderground v.1.15,2013-05-22 02:20:00,
2013-05-21 22:22:00,66.9,64.5,29.95,SW,229,0.0,0.0,92,0.00,,,0.00,Wunderground v.1.15,2013-05-22 02:22:00,
2013-05-21 22:23:00,66.9,64.5,29.95,SW,229,0.0,0.0,92,0.00,,,0.00,Wunderground v.1.15,2013-05-22 02:23:00,
2013-05-21 22:26:00,66.8,64.4,29.95,SW,229,0.0,0.0,92,0.00,,,0.00,Wunderground v.1.15,2013-05-22 02:26:00,
2013-05-21 22:28:00,66.8,64.4,29.95,SW,229,0.0,0.0,92,0.00,,,0.00,Wunderground v.1.15,2013-05-22 02:28:00,
2013-05-21 22:31:00,66.8,64.4,29.95,SW,228,0.0,0.0,92,0.00,,,0.00,Wunderground v.1.15,2013-05-22 02:31:00,
2013-05-21 22:33:00,66.8,64.7,29.95,SW,228,0.0,0.0,93,0.00,,,0.00,Wunderground v.1.15,2013-05-22 02:33:00,
2013-05-21 22:34:00,66.9,64.8,29.95,SW,228,0.0,0.0,93,0.00,,,0.00,Wunderground v.1.15,2013-05-22 02:34:00,
2013-05-21 22:36:00,66.9,64.8,29.95,SW,228,0.0,0.0,93,0.00,,,0.00,Wunderground v.1.15,2013-05-22 02:36:00,
2013-05-21 22:38:00,66.9,64.8,29.95,SW,226,0.0,0.0,93,0.00,,,0.00,Wunderground v.1.15,2013-05-22 02:38:00,
2013-05-21 22:39:00,66.9,64.8,29.95,SW,228,0.0,0.0,93,0.00,,,0.00,Wunderground v.1.15,2013-05-22 02:39:00,
2013-05-21 22:41:00,66.9,64.5,29.95,SW,228,0.0,0.0,92,0.00,,,0.00,Wunderground v.1.15,2013-05-22 02:41:00,
2013-05-21 22:43:00,66.8,64.4,29.95,SW,228,0.0,0.0,92,0.00,,,0.00,Wunderground v.1.15,2013-05-22 02:43:00,
2013-05-21 22:44:00,66.8,64.4,29.95,SW,226,0.0,0.0,92,0.00,,,0.00,Wunderground v.1.15,2013-05-22 02:44:00,
2013-05-21 22:46:00,66.6,64.2,29.95,SW,226,0.0,0.0,92,0.00,,,0.00,Wunderground v.1.15,2013-05-22 02:46:00,
2013-05-21 22:48:00,66.6,64.2,29.96,SW,226,0.0,0.0,92,0.00,,,0.00,Wunderground v.1.15,2013-05-22 02:48:00,
2013-05-21 22:49:00,66.6,64.2,29.96,SW,229,0.0,0.0,92,0.00,,,0.00,Wunderground v.1.15,2013-05-22 02:49:00,
2013-05-21 22:52:00,66.4,64.0,29.96,SW,226,0.0,0.0,92,0.00,,,0.00,Wunderground v.1.15,2013-05-22 02:52:00,
2013-05-21 22:54:00,66.3,63.9,29.96,SW,226,0.0,0.0,92,0.00,,,0.00,Wunderground v.1.15,2013-05-22 02:54:00,
2013-05-21 22:55:00,66.3,63.9,29.96,SW,228,0.0,0.0,92,0.00,,,0.00,Wunderground v.1.15,2013-05-22 02:55:00,
2013-05-21 22:57:00,66.2,63.8,29.96,SW,226,0.0,0.0,92,0.00,,,0.00,Wunderground v.1.15,2013-05-22 02:57:00,
2013-05-21 22:59:00,66.2,64.1,29.96,SW,226,0.0,0.0,93,0.00,,,0.00,Wunderground v.1.15,2013-05-22 02:59:00,
2013-05-21 23:00:00,66.2,64.1,29.96,SW,226,0.0,0.0,93,0.00,,,0.00,Wunderground v.1.15,2013-05-22 03:00:00,
2013-05-21 23:02:00,66.1,64.0,29.96,SW,226,0.0,0.0,93,0.00,,,0.00,Wunderground v.1.15,2013-05-22 03:02:00,
2013-05-21 23:04:00,66.1,64.0,29.96,SW,226,0.0,0.0,93,0.00,,,0.00,Wunderground v.1.15,2013-05-22 03:04:00,
2013-05-21 23:05:00,66.0,63.9,29.96,SW,226,0.0,0.0,93,0.00,,,0.00,Wunderground v.1.15,2013-05-22 03:05:00,
2013-05-21 23:07:00,66.0,63.9,29.96,SW,228,0.0,0.0,93,0.00,,,0.00,Wunderground v.1.15,2013-05-22 03:07:00,
2013-05-21 23:09:00,65.9,63.8,29.96,SW,228,0.0,0.0,93,0.00,,,0.00,Wunderground v.1.15,2013-05-22 03:09:00,
2013-05-21 23:10:00,65.9,63.8,29.96,SW,227,0.0,0.0,93,0.00,,,0.00,Wunderground v.1.15,2013-05-22 03:10:00,
2013-05-21 23:11:00,65.9,63.8,29.96,SW,228,0.0,0.0,93,0.00,,,0.00,Wunderground v.1.15,2013-05-22 03:11:00,
2013-05-21 23:13:00,65.8,64.0,29.96,SW,226,0.0,0.0,94,0.00,,,0.00,Wunderground v.1.15,2013-05-22 03:13:00,
2013-05-21 23:14:00,65.8,64.0,29.96,SW,226,0.0,0.0,94,0.00,,,0.00,Wunderground v.1.15,2013-05-22 03:14:00,
2013-05-21 23:15:00,65.8,64.0,29.96,SW,228,0.0,0.0,94,0.00,,,0.00,Wunderground v.1.15,2013-05-22 03:15:00,
2013-05-21 23:16:00,65.8,64.0,29.96,SW,228,0.0,0.0,94,0.00,,,0.00,Wunderground v.1.15,2013-05-22 03:16:00,
2013-05-21 23:18:00,65.8,64.0,29.96,SW,228,0.0,0.0,94,0.00,,,0.00,Wunderground v.1.15,2013-05-22 03:18:00,
2013-05-21 23:20:00,65.7,63.9,29.96,SW,226,0.0,0.0,94,0.00,,,0.00,Wunderground v.1.15,2013-05-22 03:20:00,
2013-05-21 23:21:00,65.7,63.9,29.96,SW,228,0.0,0.0,94,0.00,,,0.00,Wunderground v.1.15,2013-05-22 03:21:00,
2013-05-21 23:23:00,65.6,63.8,29.96,SW,226,0.0,0.0,94,0.00,,,0.00,Wunderground v.1.15,2013-05-22 03:23:00,
2013-05-21 23:25:00,65.6,63.8,29.96,SW,226,0.0,0.0,94,0.00,,,0.00,Wunderground v.1.15,2013-05-22 03:25:00,
2013-05-21 23:26:00,65.6,63.8,29.97,SW,228,0.0,0.0,94,0.00,,,0.00,Wunderground v.1.15,2013-05-22 03:26:00,
2013-05-21 23:28:00,65.5,63.7,29.97,SW,226,0.0,0.0,94,0.00,,,0.00,Wunderground v.1.15,2013-05-22 03:28:00,
2013-05-21 23:30:00,65.5,64.0,29.97,SW,228,0.0,0.0,95,0.00,,,0.00,Wunderground v.1.15,2013-05-22 03:30:00,
2013-05-21 23:31:00,65.5,64.0,29.97,SW,226,0.0,0.0,95,0.00,,,0.00,Wunderground v.1.15,2013-05-22 03:31:00,
2013-05-21 23:34:00,65.4,63.6,29.97,SW,226,0.0,0.0,94,0.00,,,0.00,Wunderground v.1.15,2013-05-22 03:34:00,
2013-05-21 23:35:00,65.4,63.9,29.97,SW,227,0.0,0.0,95,0.00,,,0.00,Wunderground v.1.15,2013-05-22 03:35:00,
2013-05-21 23:36:00,65.4,63.9,29.97,SW,226,0.0,0.0,95,0.00,,,0.00,Wunderground v.1.15,2013-05-22 03:36:00,
2013-05-21 23:37:00,65.4,63.9,29.97,SW,226,0.0,0.0,95,0.00,,,0.00,Wunderground v.1.15,2013-05-22 03:37:00,
2013-05-21 23:39:00,65.3,63.5,29.97,SW,226,0.0,0.0,94,0.00,,,0.00,Wunderground v.1.15,2013-05-22 03:39:00,
2013-05-21 23:40:00,65.3,63.5,29.97,SW,228,0.0,0.0,94,0.00,,,0.00,Wunderground v.1.15,2013-05-22 03:40:00,
2013-05-21 23:41:00,65.2,63.7,29.97,SW,226,0.0,0.0,95,0.00,,,0.00,Wunderground v.1.15,2013-05-22 03:41:00,
2013-05-21 23:42:00,65.3,63.8,29.97,SW,226,0.0,0.0,95,0.00,,,0.00,Wunderground v.1.15,2013-05-22 03:42:00,
2013-05-21 23:44:00,65.2,63.7,29.97,SW,226,0.0,0.0,95,0.00,,,0.00,Wunderground v.1.15,2013-05-22 03:44:00,
2013-05-21 23:45:00,65.2,63.7,29.97,SW,228,0.0,0.0,95,0.00,,,0.00,Wunderground v.1.15,2013-05-22 03:45:00,
2013-05-21 23:46:00,65.2,63.7,29.97,SW,226,0.0,0.0,95,0.00,,,0.00,Wunderground v.1.15,2013-05-22 03:46:00,
2013-05-21 23:47:00,65.2,63.7,29.98,SW,228,0.0,0.0,95,0.00,,,0.00,Wunderground v.1.15,2013-05-22 03:47:00,
2013-05-21 23:49:00,65.2,63.7,29.97,SW,226,0.0,0.0,95,0.00,,,0.00,Wunderground v.1.15,2013-05-22 03:49:00,
2013-05-21 23:50:00,65.2,63.7,29.97,SW,226,0.0,0.0,95,0.00,,,0.00,Wunderground v.1.15,2013-05-22 03:50:00,
2013-05-21 23:51:00,65.1,63.6,29.97,SW,228,0.0,0.0,95,0.00,,,0.00,Wunderground v.1.15,2013-05-22 03:51:00,
2013-05-21 23:52:00,65.1,63.6,29.97,SW,226,0.0,0.0,95,0.00,,,0.00,Wunderground v.1.15,2013-05-22 03:52:00,
2013-05-21 23:55:00,65.1,63.6,29.97,SW,226,0.0,0.0,95,0.00,,,0.00,Wunderground v.1.15,2013-05-22 03:55:00,
2013-05-21 23:56:00,65.0,63.5,29.97,SW,226,0.0,0.0,95,0.00,,,0.00,Wunderground v.1.15,2013-05-22 03:56:00,
2013-05-21 23:57:00,65.0,63.5,29.97,SW,228,0.0,0.0,95,0.00,,,0.00,Wunderground v.1.15,2013-05-22 03:57:00,